GFSFLT2_sfc_temp_000.txt.gz
Temp
86 85 78 70 70 70 70 70 70 70 70 70 69 69 69 69 69 69 69 68 68 68 68 67 67 67 67 66 66 67 81 83
84 83 85 83 83 69 69 69 69 69 70 69 68 69 69 68 68 69 68 68 67 67 66 66 66 66 66 65 66 69 81 83
83 84 83 84 85 79 70 69 69 69 71 69 70 84 81 78 67 67 67 66 66 65 64 64 64 64 64 64 66 82 80 83
84 82 82 82 86 84 83 82 86 84 83 80 83 80 80 76 72 66 66 65 65 64 63 64 67 80 80 70 81 78 80 80
84 81 81 81 84 87 88 87 85 85 80 79 81 79 80 80 80 80 79 69 79 75 77 78 74 75 77 76 77 76 80 81
85 83 81 80 85 86 87 85 85 83 83 79 79 80 79 78 79 79 78 78 76 77 77 73 73 73 73 73 74 76 81 82
84 84 82 82 80 84 82 81 83 81 81 81 80 79 78 79 78 79 78 78 77 76 76 75 73 73 73 73 73 74 75 79
85 84 82 83 82 81 81 83 82 82 82 81 78 78 77 78 78 79 79 79 79 77 76 75 75 74 73 73 73 74 74 74
85 84 84 82 81 82 83 85 81 82 82 79 78 78 78 77 78 78 79 79 76 76 74 74 74 75 72 73 73 72 74 73
86 84 84 82 82 83 85 86 82 82 82 80 78 77 77 76 77 77 78 77 77 76 75 74 73 73 73 74 74 74 73 72
85 84 84 82 81 83 82 80 82 84 82 82 79 78 77 76 77 77 76 76 76 75 74 73 72 73 73 74 74 74 73 75
86 85 82 81 84 81 82 81 82 81 81 80 78 78 76 75 76 75 75 74 74 75 72 74 73 72 74 74 73 73 74 73
83 81 76 80 82 78 80 77 79 80 80 76 75 75 75 73 74 74 74 73 72 71 71 70 70 72 68 69 71 72 70 72
78 77 77 77 80 78 76 74 77 76 78 76 76 73 73 73 72 72 72 72 70 70 69 68 69 71 66 66 63 68 71 70
76 76 75 74 75 77 78 78 77 75 74 74 73 71 72 71 71 70 69 69 69 69 69 67 66 69 69 64 61 60 66 72
74 74 74 73 72 72 69 70 68 69 70 71 71 71 70 70 69 68 67 68 66 67 69 67 66 64 68 69 66 65 59 58
72 73 73 72 71 70 70 68 68 70 69 67 68 70 69 69 66 65 65 66 65 63 63 63 63 63 63 63 59 62 62 57
71 72 71 70 70 68 65 64 65 66 66 65 67 67 67 66 64 64 63 62 62 61 60 58 58 57 57 55 55 47 51 54
69 69 69 69 68 66 66 66 65 64 64 64 62 63 63 63 61 61 62 61 60 61 59 57 52 50 48 46 44 42 42 42
68 67 67 68 66 66 68 67 66 65 63 62 60 60 61 60 60 60 60 60 59 58 53 50 52 51 49 46 45 46 43 39

GFSFLT2_sfc_temp_003.txt.gz
Temp
89 87 78 71 71 71 71 71 71 71 70 70 70 70 70 70 70 70 69 69 68 68 68 68 67 68 68 67 67 68 78 84
88 88 89 86 81 70 70 70 70 70 70 70 69 69 70 70 70 69 69 68 68 67 66 66 66 66 66 66 67 68 79 83
89 89 87 86 87 77 70 70 70 70 72 70 72 83 83 79 68 68 68 67 66 66 65 65 66 66 66 67 67 80 80 83
88 87 86 85 89 85 84 84 85 84 84 82 85 82 82 80 72 68 68 67 67 66 66 66 66 80 78 69 78 79 79 80
89 84 84 85 86 88 89 89 86 86 83 82 82 82 82 82 82 81 79 70 79 74 75 78 75 75 76 76 77 77 79 80
88 86 84 84 88 88 88 87 85 86 84 82 81 81 81 80 81 81 80 81 78 79 78 77 75 75 75 74 75 75 79 79
89 87 85 85 83 86 85 83 85 83 84 83 82 80 79 80 79 80 80 81 80 79 78 78 76 75 75 74 75 75 75 77
89 88 86 86 85 83 83 84 85 85 85 82 81 80 79 79 79 80 80 81 81 79 78 77 76 76 75 74 74 75 76 75
87 88 87 85 84 84 85 85 84 85 85 82 81 80 79 78 78 78 80 80 78 79 78 78 76 77 75 75 74 73 74 74
89 89 87 85 84 84 86 86 84 84 84 84 81 80 79 78 78 78 79 78 78 78 77 76 76 76 75 75 76 75 74 74
88 87 86 85 83 85 84 83 83 85 84 84 82 80 80 78 78 78 78 78 77 77 77 76 75 75 75 76 75 75 75 76
89 87 86 84 86 83 84 84 83 84 83 82 80 80 78 77 77 76 77 76 76 77 75 76 75 74 75 75 75 76 76 75
88 84 82 84 84 81 81 79 80 81 82 80 78 78 77 75 76 76 75 74 74 74 73 71 72 74 72 71 72 73 73 74
83 81 81 82 83 80 77 76 78 79 80 78 78 76 75 74 73 73 73 72 72 71 70 70 71 72 68 67 61 66 72 73
81 80 78 77 79 79 78 79 78 77 76 76 76 74 74 73 72 72 71 71 70 70 70 68 66 69 69 65 58 58 65 72
78 77 77 76 74 75 72 71 70 71 72 74 73 73 73 73 72 70 68 69 67 68 69 66 65 62 66 68 66 63 56 56
76 76 75 75 74 72 70 69 70 71 71 69 68 71 71 71 70 68 66 66 66 64 63 62 62 61 60 60 59 59 59 52
74 75 74 73 71 72 69 63 63 66 67 66 68 68 68 68 68 66 65 64 63 62 62 60 56 56 55 53 50 48 47 47
73 74 74 75 72 70 69 68 68 67 66 66 63 64 64 64 63 62 62 63 63 61 56 52 48 45 47 48 50 46 45 44
72 72 71 74 72 71 71 70 68 67 65 63 61 61 62 63 62 61 61 61 58 56 55 54 52 50 48 47 48 47 45 43

GFSFLT2_sfc_temp_009.txt.gz
Temp
67 69 70 69 69 69 69 69 70 70 70 70 70 69 69 70 70 70 70 69 69 69 68 68 68 68 67 67 66 66 63 65
68 68 68 66 67 68 68 69 69 69 69 69 69 69 69 69 69 69 69 69 69 68 68 68 67 67 67 66 66 66 64 64
70 70 69 67 66 69 69 69 69 69 69 69 67 66 67 68 67 68 69 68 68 68 68 67 66 66 66 66 66 62 63 64
72 72 69 69 76 67 66 69 67 67 67 66 66 65 66 69 67 68 68 68 67 67 67 66 66 62 62 65 60 62 63 63
72 72 71 70 70 66 65 66 65 66 68 68 68 68 66 65 62 63 61 65 62 64 63 62 62 61 62 61 62 62 60 61
72 72 72 70 69 68 67 67 66 67 67 68 65 63 63 64 62 62 61 61 60 61 61 62 62 64 63 62 62 61 60 60
73 71 69 71 70 67 68 66 67 67 66 67 66 64 63 63 63 63 62 62 62 62 62 63 63 64 63 62 63 62 62 61
67 67 70 72 70 68 68 66 66 66 65 66 67 64 63 62 62 62 62 62 62 62 62 61 61 62 63 63 62 62 62 61
66 66 68 69 70 70 68 68 68 65 66 67 67 66 65 64 61 61 62 62 62 61 61 60 60 62 61 61 61 61 61 62
66 68 69 66 69 70 70 67 66 65 65 64 65 66 64 61 61 60 61 61 61 60 59 59 58 58 57 59 59 60 60 60
63 63 64 65 68 69 66 68 67 65 63 63 64 64 63 60 60 59 59 59 58 58 58 56 55 56 60 61 59 58 58 64
63 63 63 66 67 66 63 63 63 63 62 63 63 62 62 60 59 60 59 58 56 57 55 56 54 55 62 62 56 57 57 56
63 61 64 63 62 59 60 61 61 60 62 63 62 62 63 61 58 58 56 55 54 54 53 53 55 53 51 54 53 55 55 56
61 61 61 61 61 60 61 61 61 60 61 61 61 61 61 62 57 56 55 54 53 52 51 50 50 50 47 47 45 50 51 55
62 62 63 62 61 63 61 60 59 59 59 59 61 59 59 57 55 54 53 52 50 50 50 49 46 48 48 45 40 39 42 48
62 63 64 65 62 59 57 55 54 56 55 55 55 56 56 57 55 53 51 50 50 49 53 47 46 43 45 50 44 43 40 38
60 62 63 64 62 59 56 55 55 55 54 52 52 53 54 55 54 52 50 50 49 47 46 44 44 43 42 42 42 42 43 40
62 62 62 62 61 59 57 55 54 52 50 49 50 50 51 52 53 51 50 48 47 46 45 43 42 45 46 45 43 39 37 36
59 60 62 61 59 57 55 53 52 50 49 48 50 51 48 47 47 46 46 46 46 45 43 43 42 40 39 39 39 39 39 38
59 61 61 60 56 54 53 52 51 54 54 53 49 46 46 46 46 46 46 45 44 43 41 42 44 42 42 41 40 42 39 38

GFSFLT2_sfc_temp_012.txt.gz
Temp
67 68 70 69 69 69 69 69 70 70 70 70 70 69 69 70 70 70 70 70 69 70 69 68 68 68 68 67 66 66 61 63
64 65 66 65 66 68 68 69 69 69 69 69 68 69 69 69 69 69 70 70 70 69 69 68 68 67 67 66 66 65 61 61
63 64 64 64 65 68 69 69 69 69 69 68 66 65 65 66 67 68 69 69 68 68 68 67 67 66 66 66 66 60 60 61
66 65 64 64 72 66 65 67 66 65 66 65 64 63 63 67 66 67 68 68 68 67 67 66 65 60 60 64 59 60 60 60
68 68 66 65 67 64 63 63 63 64 65 64 63 64 63 63 61 62 61 63 61 62 62 60 60 59 59 59 60 61 58 59
69 68 68 65 65 63 64 64 64 63 64 65 63 61 61 60 60 60 59 59 59 59 58 60 59 61 60 60 60 59 59 59
65 67 67 66 66 66 65 65 64 64 65 65 63 62 61 60 60 60 59 59 59 59 59 60 60 61 61 60 60 60 60 59
65 67 67 70 67 66 65 64 64 64 63 64 65 62 61 61 60 60 59 58 59 58 58 58 58 59 59 60 60 59 59 59
67 67 67 67 68 67 66 64 64 63 63 63 63 62 61 60 58 58 58 58 58 58 58 57 57 59 58 58 59 60 58 58
66 69 66 65 66 65 66 65 63 62 61 61 62 62 61 58 57 57 57 57 57 56 56 56 55 54 54 55 56 57 58 58
63 63 63 65 64 62 63 62 61 60 59 59 61 61 60 58 58 57 57 56 54 54 54 52 51 52 56 55 54 54 54 59
60 62 63 62 59 58 59 59 59 59 59 59 61 62 62 58 57 56 55 54 52 52 51 51 50 50 57 55 51 52 53 51
59 62 60 62 59 56 56 56 58 58 61 62 61 61 59 56 54 54 53 52 50 51 50 49 49 49 47 50 48 51 49 49
59 59 59 60 58 56 57 57 61 61 61 61 57 56 57 58 53 51 51 50 50 49 48 47 47 47 45 43 42 47 45 49
59 60 60 59 61 61 60 60 59 58 56 55 56 56 55 53 52 50 50 49 48 47 47 46 43 45 44 43 39 36 39 45
59 61 61 61 60 58 58 55 54 53 51 51 52 52 53 53 51 49 48 47 46 45 48 44 44 42 43 47 42 43 41 38
57 59 60 60 59 59 56 54 51 50 49 49 50 51 53 54 52 50 48 46 45 44 43 42 41 41 40 40 40 39 40 37
56 58 58 59 57 55 53 51 50 48 48 50 51 50 48 49 50 45 44 43 43 42 41 41 41 43 43 41 39 38 36 35
58 58 56 55 53 51 50 50 49 53 52 51 47 48 47 46 44 43 43 43 43 42 41 41 41 43 43 41 42 41 39 40
56 56 54 53 51 51 51 51 52 53 51 49 47 44 43 43 43 43 43 43 42 41 39 38 39 38 38 38 41 39 42 40

GFSFLT2_sfc_temp_015.txt.gz
Temp
68 68 69 69 69 69 69 69 70 70 70 70 70 69 69 70 70 70 70 70 70 70 69 68 68 68 67 66 65 66 60 60
64 65 65 64 65 68 68 69 69 69 69 69 69 69 69 69 69 69 70 70 70 69 69 68 68 67 67 66 65 64 59 59
62 63 63 63 64 67 68 69 69 68 68 69 66 64 64 65 67 67 69 69 69 68 68 67 66 65 65 66 65 59 58 58
62 62 62 63 69 64 64 66 65 64 65 64 63 63 62 65 65 67 67 67 67 67 67 66 65 59 59 63 58 60 59 58
64 63 62 63 66 63 62 62 62 63 64 63 62 63 61 61 60 60 59 63 60 61 60 59 59 58 58 58 58 59 57 59
66 64 63 62 62 62 62 63 63 63 63 63 60 59 59 59 58 58 57 57 57 57 57 58 58 59 59 58 58 57 57 58
66 65 63 63 63 62 62 63 63 63 63 63 61 60 59 58 58 58 58 57 57 57 57 57 57 58 58 58 58 58 58 58
63 64 64 65 63 63 62 62 63 63 62 62 62 60 59 58 57 58 57 56 56 56 56 55 55 56 57 57 58 57 57 57
62 63 64 63 64 63 62 62 62 61 61 61 61 60 58 58 57 56 56 56 55 55 55 54 54 55 54 55 56 56 56 56
62 66 63 63 62 61 60 60 59 58 58 58 59 60 58 56 56 55 54 54 54 53 52 52 51 50 50 52 52 53 54 55
60 62 61 61 60 60 59 58 58 57 57 57 58 59 58 56 54 53 53 53 51 51 51 50 49 49 52 51 50 50 51 54
61 61 61 60 58 58 58 58 57 56 56 57 58 58 58 55 55 52 52 51 50 49 49 49 48 48 53 52 49 49 48 47
61 59 59 58 57 55 56 53 54 55 58 60 57 58 56 52 51 51 50 49 48 48 47 47 47 47 45 48 46 47 47 47
56 57 58 57 56 54 54 54 56 59 59 55 54 53 53 53 49 49 48 48 47 46 45 44 44 45 42 41 39 45 43 47
58 58 58 58 57 56 58 59 57 54 52 52 52 52 51 50 48 47 46 46 44 43 43 42 41 43 43 41 37 35 37 42
57 58 58 58 57 56 56 54 53 50 48 48 48 49 49 50 48 47 45 44 43 44 44 40 40 38 40 44 40 41 39 36
54 56 57 57 55 54 52 51 49 48 47 47 48 49 51 48 49 48 46 43 42 42 40 39 39 38 40 40 42 40 38 36
52 53 52 52 51 50 49 48 47 47 49 50 50 48 46 49 48 44 44 42 41 40 39 39 38 39 40 42 39 37 37 36
52 52 51 51 50 50 49 49 49 49 50 49 47 44 43 43 43 42 42 42 41 40 39 38 37 36 36 36 37 37 38 39
51 51 51 51 51 51 50 49 49 49 48 46 44 42 42 42 42 42 42 42 41 39 38 37 37 35 34 34 35 36 37 38

GFSFLT2_sfc_temp_018.txt.gz
Temp
71 69 69 69 69 69 69 69 70 70 70 70 70 69 70 70 70 70 70 70 70 70 69 68 68 68 67 66 65 65 59 61
68 67 66 65 66 68 68 69 69 69 69 69 68 69 69 69 68 69 70 70 70 69 68 68 67 66 66 66 65 64 59 59
63 63 63 63 63 66 68 69 68 68 68 68 66 63 64 64 67 68 68 68 68 68 68 67 66 65 65 65 64 58 58 59
61 61 61 62 67 63 63 65 64 64 64 64 63 62 62 65 65 66 67 66 66 66 66 65 62 59 58 61 58 59 58 58
61 61 61 61 63 61 61 62 62 62 63 62 62 62 61 61 59 59 58 63 58 59 59 58 59 58 58 58 58 58 57 58
62 61 61 61 61 61 61 61 61 61 62 63 60 59 58 58 57 56 56 56 57 57 56 57 57 57 57 57 57 57 57 57
62 62 61 62 61 60 60 61 62 62 62 62 59 57 56 56 56 56 56 56 55 55 55 56 55 56 56 56 57 56 57 56
62 62 62 62 61 63 60 61 61 62 60 60 60 58 56 57 56 56 55 54 54 54 54 53 53 54 55 55 55 55 56 56
60 61 61 60 60 60 59 60 61 60 59 59 59 58 56 56 54 54 53 53 53 53 53 52 52 53 52 53 54 54 54 54
62 63 60 60 60 59 60 59 58 58 57 56 57 57 56 54 54 52 52 52 54 51 50 50 50 49 49 50 50 51 52 52
60 60 60 60 59 59 57 58 57 56 55 56 56 56 56 54 55 54 55 52 49 50 49 48 47 48 50 50 49 49 49 53
60 60 60 59 58 57 56 58 56 55 56 57 56 56 57 55 55 52 50 49 47 47 47 47 47 46 51 50 48 48 48 47
60 59 59 58 56 54 53 53 54 54 54 56 57 56 52 50 48 48 48 46 45 45 45 45 45 45 43 46 45 46 46 46
57 58 57 57 55 53 54 53 53 55 54 51 51 50 50 50 47 46 45 45 45 43 44 42 43 43 41 40 38 42 44 47
56 56 56 56 57 54 54 54 52 50 49 48 48 49 48 47 47 46 45 44 45 43 42 40 39 41 41 40 36 34 39 43
54 55 55 56 54 53 52 50 48 46 46 45 46 48 48 48 49 46 45 44 43 43 42 39 39 37 39 43 40 41 37 35
52 53 53 52 51 51 48 46 46 46 46 46 46 47 50 50 48 45 43 42 41 40 39 38 38 37 37 38 38 38 38 37
51 50 50 50 50 49 48 48 47 46 46 46 47 46 44 45 45 42 41 41 40 39 38 38 37 37 37 37 36 35 34 34
50 50 49 50 50 50 49 49 48 47 47 46 45 43 42 41 41 43 41 41 41 40 38 37 36 35 35 35 36 35 36 35
49 50 49 50 50 49 48 48 46 46 46 45 44 43 41 41 41 42 42 41 40 40 38 38 38 36 35 34 34 34 35 35

GFSFLT2_sfc_temp_021.txt.gz
Temp
75 76 74 70 69 69 69 70 70 70 70 70 70 70 70 70 70 71 71 70 70 70 69 68 68 68 67 66 65 66 76 77
73 74 75 74 74 68 69 69 69 69 69 69 69 69 69 69 68 69 70 70 70 69 68 68 68 66 66 65 65 66 75 76
70 70 72 72 73 72 70 69 69 69 70 69 68 74 74 73 69 68 69 68 68 68 68 67 66 67 66 65 66 77 75 76
69 69 70 71 73 73 73 73 75 74 74 73 74 72 73 73 69 66 66 66 66 66 66 66 70 75 76 71 76 73 75 75
70 69 70 70 72 73 73 73 73 73 71 72 72 72 72 73 74 73 72 68 73 72 73 73 70 72 72 71 72 73 73 74
70 70 69 68 72 72 71 73 72 72 72 71 72 72 71 71 72 71 70 71 70 70 71 69 69 69 69 69 69 71 72 72
70 69 68 68 69 70 69 69 71 69 71 70 72 72 69 70 69 70 70 71 70 69 69 69 68 68 68 68 68 68 68 71
69 69 69 69 69 67 67 65 66 67 67 67 68 70 69 69 68 69 69 69 68 68 67 68 67 67 67 66 67 67 67 67
67 67 68 67 66 65 62 61 62 63 62 64 65 68 66 66 67 67 67 67 66 68 66 66 67 67 66 66 67 66 66 65
66 66 66 64 64 63 62 60 59 60 60 61 63 64 66 66 63 64 63 63 64 60 64 65 64 63 63 65 65 66 64 64
65 66 65 64 61 60 60 60 62 61 62 64 63 64 64 62 58 60 62 62 61 62 62 61 61 62 62 64 64 65 64 65
64 63 60 60 58 59 61 60 62 62 59 60 64 63 62 63 61 60 62 61 60 61 60 61 60 58 59 60 60 62 62 63
63 61 60 59 60 60 64 60 58 59 63 62 62 62 61 61 61 60 61 60 58 57 59 56 58 57 57 57 59 60 59 60
64 65 64 65 67 66 66 65 65 62 61 60 60 60 60 60 60 60 59 60 57 55 55 55 55 55 51 52 51 55 58 57
66 66 66 66 66 66 65 64 63 63 61 60 59 60 60 59 58 59 58 57 56 54 53 51 51 53 52 50 46 46 48 55
65 65 65 63 64 64 62 63 61 59 60 60 61 59 59 59 58 56 55 56 54 54 54 51 51 48 51 53 50 48 43 42
62 61 61 61 61 61 61 59 59 60 60 57 58 58 58 58 56 55 54 55 54 52 52 51 52 50 49 48 48 48 47 42
60 60 60 61 62 61 60 59 59 60 59 58 59 59 58 56 55 54 54 54 52 52 51 50 50 49 50 48 46 43 42 42
60 61 59 60 60 60 60 59 59 58 58 58 57 57 57 56 53 52 53 52 51 51 51 50 50 48 47 47 47 46 46 44
60 61 60 60 59 58 58 57 58 58 57 57 56 54 53 53 52 52 52 51 51 51 50 50 49 48 47 47 47 47 46 44

GFSFLT2_sfc_temp_024.txt.gz
Temp
79 81 76 70 70 70 70 70 71 71 71 71 70 70 70 71 71 71 71 71 71 70 69 69 69 68 67 66 66 67 83 84
78 79 81 80 79 69 69 69 70 70 70 70 69 70 70 70 70 70 70 70 70 69 69 68 68 68 67 66 66 68 84 85
76 82 81 81 82 76 70 70 69 69 71 69 70 83 81 79 68 68 69 68 68 68 68 67 68 70 69 68 68 84 83 84
73 77 78 79 80 78 79 80 82 82 82 80 84 80 81 80 73 67 67 68 67 67 67 69 75 83 83 76 82 80 82 82
71 75 76 78 79 81 82 83 82 81 79 80 80 81 81 83 83 83 82 72 84 80 81 81 77 78 79 78 79 80 81 82
79 79 76 77 81 81 80 81 81 79 79 78 79 79 80 81 83 83 81 83 80 80 81 77 76 76 76 75 75 77 79 79
78 78 77 77 77 78 78 77 76 76 77 76 77 79 79 80 79 81 80 81 79 79 78 77 76 76 75 74 74 74 74 77
78 78 77 78 78 76 76 75 74 71 70 68 67 70 75 79 79 79 80 79 78 77 75 75 75 75 75 73 73 74 74 73
76 76 77 76 75 73 70 68 66 68 67 67 65 67 71 76 77 77 75 74 74 74 73 74 74 74 73 73 73 74 74 72
74 73 72 72 70 69 64 63 65 66 66 65 66 66 67 72 70 69 70 71 71 72 71 71 71 71 70 71 72 73 72 72
72 73 70 65 62 63 64 64 67 66 64 65 63 64 67 68 69 68 69 71 69 69 69 68 67 68 68 69 69 70 69 73
71 69 66 64 63 67 66 67 65 70 68 69 71 71 69 71 70 68 70 69 69 67 65 67 66 66 65 67 67 67 68 69
69 67 69 69 68 68 69 69 68 69 72 70 69 69 69 69 71 69 68 67 64 64 65 64 63 64 60 63 64 67 65 66
70 71 73 75 76 76 75 74 74 73 71 69 69 69 69 69 67 67 66 65 63 62 61 61 62 62 56 56 55 60 65 63
74 75 75 76 75 75 74 73 71 71 72 72 69 69 69 67 66 65 65 64 63 61 60 58 56 60 58 54 50 50 54 60
76 75 75 74 73 73 72 74 71 69 70 70 72 68 67 67 66 65 63 63 61 61 61 58 56 55 57 59 56 54 48 46
73 73 72 72 72 72 71 68 69 69 70 67 67 68 67 66 65 63 62 62 61 58 57 56 57 55 55 54 53 53 53 48
70 71 70 71 70 69 68 66 66 68 67 66 67 67 67 66 64 62 61 60 58 58 57 56 55 54 54 53 51 49 48 47
69 70 68 69 68 68 67 66 65 64 64 65 63 64 64 63 62 61 61 60 58 58 56 54 54 54 53 52 52 51 51 48
69 69 68 68 67 66 64 64 68 67 65 64 63 61 61 61 60 60 60 59 58 57 56 53 52 51 52 52 52 52 51 51

GFSFLT2_sfc_temp_027.txt.gz
Temp
76 76 73 70 69 70 70 70 71 71 71 71 71 71 71 71 71 71 71 71 71 71 70 69 69 69 68 68 67 68 78 85
76 77 78 78 77 69 69 69 70 70 70 70 70 70 71 71 70 70 70 70 70 70 69 69 69 69 69 69 69 69 84 86
75 79 81 80 77 73 71 70 70 70 71 70 70 82 79 78 69 69 69 69 69 69 69 70 70 71 70 71 70 82 83 83
77 76 78 80 82 80 80 79 80 81 81 80 83 81 81 80 74 69 69 69 69 69 70 71 71 82 82 77 81 80 82 82
76 77 79 81 81 82 83 84 83 82 81 80 80 82 82 82 83 81 81 74 81 79 80 82 78 78 78 78 78 78 80 80
82 81 79 81 83 84 84 83 82 79 77 78 78 80 78 80 82 83 80 82 79 81 81 78 78 78 77 76 76 77 78 78
81 80 79 80 81 82 81 80 77 79 78 77 78 76 75 78 78 80 80 80 80 79 79 78 77 77 76 76 74 74 75 77
80 80 80 81 80 78 77 78 76 76 76 75 72 71 72 71 69 69 75 78 78 77 75 74 73 74 73 74 73 74 75 75
79 78 80 79 76 76 76 74 71 70 72 70 70 69 70 67 66 67 72 72 70 71 70 72 73 75 73 74 74 73 74 73
78 80 77 76 71 66 64 64 69 71 70 69 67 66 63 65 66 67 68 71 73 72 72 71 71 70 70 71 71 72 71 71
76 75 73 68 63 63 64 68 70 68 66 65 65 67 68 69 70 70 71 72 71 71 69 68 68 68 69 70 69 69 69 71
75 72 70 68 65 66 69 68 69 69 69 72 73 73 72 74 71 70 70 70 70 68 65 67 66 66 67 66 66 68 69 68
71 68 70 72 73 73 72 70 72 73 75 73 73 73 72 72 73 71 70 68 66 66 65 63 63 65 62 61 62 65 66 68
73 72 72 73 72 73 77 75 75 76 74 72 73 72 72 72 68 68 68 66 65 64 63 60 61 63 57 57 52 57 63 64
72 73 72 75 78 78 78 77 73 73 73 73 71 71 71 70 68 67 66 65 64 63 62 59 57 60 60 56 49 48 53 59
71 71 78 78 78 77 74 75 70 73 73 72 73 70 69 70 69 67 65 64 62 62 64 59 57 55 58 60 58 55 48 46
77 78 78 76 77 76 74 72 71 72 72 69 70 70 70 69 68 66 64 63 62 61 59 58 58 55 53 55 54 54 53 48
75 75 75 75 74 73 71 69 69 69 67 67 69 68 68 68 67 64 63 62 61 61 60 57 54 54 55 54 52 49 48 46
73 74 72 72 71 70 69 67 66 62 65 67 64 65 64 64 62 61 61 61 61 61 57 54 55 54 53 53 52 50 51 50
73 73 71 71 70 69 68 67 66 68 67 66 64 63 62 62 61 60 60 60 60 57 56 55 54 53 50 51 50 51 52 50

GFSFLT2_sfc_temp_030.txt.gz
Temp
68 70 71 69 69 69 69 70 70 70 70 70 70 70 70 71 71 71 71 71 71 70 70 70 70 69 70 69 69 69 68 72
67 70 71 70 70 69 69 69 69 70 70 70 69 70 70 70 70 70 70 70 70 70 70 70 70 70 69 70 70 70 72 71
67 69 71 71 70 70 69 70 69 69 70 70 68 72 71 71 69 69 70 70 70 70 70 71 69 71 71 69 71 72 72 70
67 71 71 72 76 71 70 71 70 71 72 70 70 73 72 75 70 69 70 70 70 70 71 70 70 70 69 70 68 69 69 69
72 71 72 74 73 73 73 73 73 72 72 72 71 74 72 69 67 68 66 67 70 68 71 70 70 68 67 67 67 67 65 67
74 74 72 71 74 73 73 75 72 69 71 73 71 69 69 70 69 71 71 70 70 69 69 69 69 70 68 67 67 65 66 65
74 73 72 73 73 72 72 69 71 70 70 70 70 69 67 68 67 66 67 68 69 67 66 66 65 66 66 66 66 66 65 64
74 74 73 74 72 71 70 70 70 69 68 69 69 67 66 65 65 65 66 66 66 64 63 63 63 64 65 65 65 65 65 64
73 72 73 72 72 71 69 68 67 67 67 67 66 65 65 64 63 61 62 64 63 63 63 63 62 65 63 63 63 63 63 63
74 77 72 71 69 68 65 63 65 66 64 63 63 63 63 61 62 61 62 61 62 61 61 60 59 59 58 59 59 60 61 61
73 73 69 67 65 64 65 66 66 64 63 62 62 64 65 63 62 61 62 62 61 61 58 57 56 56 59 57 56 56 57 63
72 70 67 67 64 66 67 65 65 65 65 65 66 66 67 65 62 62 62 60 59 58 56 56 54 53 61 59 54 54 56 57
70 67 67 67 67 66 65 63 65 66 67 68 67 66 66 63 62 61 61 58 57 57 55 53 52 53 50 51 51 53 52 53
66 68 68 69 71 70 69 67 67 67 66 66 66 66 65 64 61 60 58 56 55 54 53 51 51 51 47 47 43 47 50 52
67 67 69 69 71 70 70 69 66 65 64 63 64 65 65 63 62 59 57 56 53 53 52 51 47 48 50 45 41 39 44 47
71 70 71 71 70 71 67 67 64 64 64 63 63 65 64 64 62 59 57 55 53 52 55 49 48 45 47 52 47 44 40 39
70 71 71 72 72 70 67 64 64 64 62 61 63 63 63 63 61 56 54 54 53 52 51 50 48 45 44 44 45 43 43 38
68 70 72 71 70 69 66 63 62 60 60 59 60 59 59 58 58 54 54 52 52 51 51 52 47 46 46 45 43 40 39 37
70 71 70 69 66 65 63 62 60 59 59 59 57 56 55 54 54 53 52 52 52 51 50 48 46 45 44 43 44 44 45 41
69 70 69 67 65 63 62 61 59 59 59 58 56 55 54 54 53 52 52 52 51 50 49 47 47 44 44 43 43 44 46 42

GFSFLT2_sfc_temp_033.txt.gz
Temp
69 69 69 69 69 69 69 70 70 70 70 70 70 70 70 71 70 71 71 70 70 70 70 70 70 70 69 68 68 68 65 65
67 68 68 68 69 68 69 69 69 69 70 70 69 69 70 70 70 70 70 70 70 71 70 70 70 70 69 68 68 68 63 62
66 66 67 68 67 69 69 70 69 69 69 69 67 67 68 69 69 69 70 70 70 70 70 70 69 68 69 68 67 65 64 61
61 66 66 67 72 67 66 69 67 67 67 66 66 66 66 69 68 68 69 69 69 70 69 69 69 66 64 66 63 64 63 60
63 66 68 69 69 66 66 66 65 65 66 65 66 68 65 65 64 65 63 67 65 67 69 69 65 63 63 62 63 63 60 61
66 68 70 70 69 68 67 66 66 65 67 67 65 64 63 64 63 64 66 64 63 63 61 63 63 64 64 63 63 61 61 60
70 70 70 70 67 66 66 65 66 65 65 66 64 64 62 61 61 61 61 62 63 61 63 61 61 62 62 62 62 61 61 60
69 69 68 69 68 66 66 65 64 64 64 64 64 62 61 61 59 60 60 61 62 60 62 60 58 59 60 60 60 59 59 59
68 67 67 67 66 65 63 64 63 63 62 62 61 61 59 59 57 58 59 59 59 59 57 57 56 59 57 58 57 57 57 57
68 71 65 65 64 61 61 60 60 60 59 59 60 60 59 58 57 57 57 58 57 56 55 55 54 53 52 52 52 54 55 56
66 66 64 61 60 59 60 60 58 58 57 57 59 61 61 58 57 57 57 56 55 56 53 52 50 50 53 52 50 50 51 56
66 64 61 61 60 60 59 58 57 57 57 58 61 61 61 58 57 57 56 55 53 53 52 51 50 48 56 52 48 49 49 48
64 63 61 61 59 58 59 59 57 57 59 60 60 61 60 57 55 55 54 53 52 51 50 49 48 47 45 45 46 47 50 47
63 63 63 61 61 61 64 59 59 59 59 59 60 59 59 59 56 54 54 52 50 49 48 46 46 45 43 41 38 42 45 48
63 63 64 63 63 65 63 59 58 56 56 56 58 59 60 57 55 54 52 51 49 48 47 46 43 45 45 42 36 34 38 43
63 64 64 64 63 62 61 58 57 56 55 56 57 59 59 59 56 52 51 50 49 48 50 46 44 42 43 48 42 39 35 33
62 63 64 65 66 63 63 56 55 56 56 55 55 56 58 55 52 50 49 48 47 47 46 45 44 42 41 41 40 39 39 35
61 63 63 64 64 62 59 58 55 54 53 54 54 52 51 52 52 49 49 48 47 46 45 45 43 43 45 43 40 38 37 35
61 61 61 61 58 57 56 54 54 53 53 51 53 52 49 49 51 50 47 47 47 46 45 44 44 42 41 41 41 40 40 40
61 61 59 59 57 56 54 54 53 53 52 51 53 52 52 51 50 48 48 48 46 46 44 43 43 41 40 40 40 40 41 41

GFSFLT2_sfc_temp_036.txt.gz
Temp
68 69 70 69 69 69 69 70 70 70 70 71 70 70 70 71 71 71 71 71 71 71 70 71 71 70 69 67 67 67 61 62
64 66 66 67 67 68 69 69 69 69 70 69 69 69 70 70 70 70 70 71 71 71 70 70 70 69 69 67 66 65 60 59
63 65 66 66 66 68 69 69 69 69 69 69 67 66 67 68 68 69 70 70 70 70 70 69 68 68 68 67 65 60 59 59
63 65 65 66 70 67 64 67 65 65 65 65 65 65 65 67 67 68 69 69 69 69 68 67 66 62 62 64 61 61 59 58
62 64 66 66 67 63 62 62 63 63 64 63 64 65 64 63 63 64 63 66 64 65 65 63 62 61 60 60 60 59 57 58
63 63 67 65 65 63 63 64 63 63 64 65 63 61 61 62 61 61 60 60 60 60 59 60 60 61 61 60 59 58 57 57
65 65 66 65 64 63 63 63 63 63 64 65 64 61 59 59 59 59 59 59 58 58 58 59 58 59 59 58 58 57 56 55
66 67 66 65 64 64 63 63 63 62 62 62 62 60 59 58 57 58 58 58 58 57 56 55 54 56 56 56 56 55 55 54
66 66 65 65 63 63 63 62 61 61 60 60 60 59 58 57 56 56 56 57 56 55 54 54 53 55 54 54 53 53 53 53
66 69 64 63 61 62 60 60 59 58 57 58 59 59 58 56 56 55 55 55 54 53 52 52 50 50 50 49 49 51 51 52
63 64 62 60 59 59 59 59 58 56 56 56 58 58 58 56 55 54 54 53 52 53 50 50 48 48 51 48 47 47 47 53
64 63 60 60 59 59 57 56 56 56 55 56 58 58 58 56 54 53 53 52 50 50 49 49 47 46 54 50 46 46 45 45
63 60 59 60 59 57 55 54 54 55 56 58 58 58 57 55 53 52 52 51 50 50 48 47 45 45 43 43 43 44 46 45
62 62 60 60 61 58 58 56 56 56 56 57 57 56 56 55 53 52 51 50 49 48 47 44 44 43 42 38 37 40 42 46
62 61 61 61 60 60 59 59 55 54 53 54 55 57 57 55 53 52 50 49 48 46 45 45 42 42 42 41 35 33 35 40
62 62 61 62 61 60 60 60 55 54 53 53 54 56 55 54 52 50 49 48 47 47 48 44 42 41 41 45 40 39 34 32
60 62 60 63 62 60 59 55 55 53 52 53 53 52 52 52 50 48 47 46 46 46 46 42 41 40 40 39 40 38 37 34
60 60 61 61 61 59 58 56 53 54 51 51 50 49 49 50 49 48 47 47 47 46 44 43 41 41 41 40 39 37 36 34
60 60 60 60 59 57 56 55 54 55 53 49 49 49 50 49 50 49 49 48 45 45 43 41 40 39 38 38 39 38 38 37
60 60 58 57 55 54 53 56 56 52 53 54 52 51 50 51 50 50 48 47 46 44 41 41 40 38 38 38 37 38 39 40

GFSFLT2_sfc_temp_039.txt.gz
Temp
66 67 70 69 69 69 69 70 70 71 71 71 70 70 70 71 71 71 71 71 71 71 71 70 70 69 68 66 66 66 59 60
63 64 66 66 67 68 68 69 69 69 69 69 68 69 69 70 70 70 71 71 71 71 70 69 69 68 67 66 65 64 58 58
62 64 64 65 66 68 68 69 69 68 68 68 66 64 65 66 68 69 70 70 70 69 68 67 67 67 66 65 64 58 58 57
61 63 64 64 69 65 64 67 65 65 64 64 63 63 63 66 67 68 68 68 68 68 67 66 64 60 60 62 57 57 57 57
60 62 64 64 65 62 62 62 62 63 64 62 62 64 63 62 61 61 60 64 62 62 61 60 60 58 57 56 56 55 53 55
63 64 64 63 63 62 62 62 62 61 62 63 62 61 60 60 59 59 59 58 58 58 57 58 57 58 57 56 55 53 52 53
63 63 63 64 62 61 61 61 62 63 63 64 62 60 58 58 57 58 57 58 57 56 56 56 56 56 55 55 54 53 53 51
64 64 63 63 62 62 62 62 62 61 61 62 61 59 58 57 56 56 56 56 55 55 54 53 52 53 53 53 52 51 51 51
62 62 62 62 62 61 61 61 61 60 60 60 60 58 57 56 55 55 54 55 54 53 52 51 51 53 51 51 50 50 50 50
64 67 62 61 60 60 59 59 59 58 57 57 58 58 57 55 54 54 53 53 53 51 51 49 48 48 47 46 47 48 49 49
62 62 60 59 58 58 58 58 57 56 56 56 57 57 57 55 53 52 53 52 51 52 49 48 46 47 49 47 45 45 46 50
62 61 58 58 58 57 56 58 57 55 54 55 57 57 57 55 53 52 51 50 49 49 47 45 45 45 51 48 43 43 44 43
60 59 58 60 58 56 54 54 54 54 55 57 57 56 56 53 52 51 50 50 48 48 46 46 43 42 43 42 41 42 42 42
59 60 58 60 60 56 56 54 54 54 55 55 56 55 55 53 51 50 49 48 47 46 46 43 44 43 41 37 36 40 41 42
60 60 59 60 58 58 55 54 53 52 52 52 53 55 55 53 51 49 48 47 46 45 45 46 42 42 42 42 35 32 35 39
62 60 59 60 60 58 56 54 54 52 52 52 53 54 53 52 50 48 47 46 45 46 46 42 41 41 40 44 39 38 34 32
60 60 60 61 60 60 57 54 53 52 51 52 51 50 51 50 49 47 48 46 48 46 44 42 40 39 38 38 37 36 35 33
59 59 60 61 60 58 57 55 53 51 50 49 48 47 47 48 48 49 48 48 48 44 42 42 41 40 39 38 37 36 35 33
59 59 59 59 59 57 55 54 53 54 53 51 47 46 46 47 48 49 48 47 47 46 42 42 42 40 39 38 37 38 37 36
59 59 60 58 57 56 54 53 53 52 51 50 51 50 50 50 49 48 48 48 48 46 43 42 39 38 38 37 37 37 37 37

GFSFLT2_sfc_temp_042.txt.gz
Temp
66 66 69 69 69 69 69 70 70 71 71 71 70 70 70 71 71 71 71 71 71 71 70 69 69 68 67 66 65 65 59 60
63 64 65 65 66 68 68 69 69 69 69 69 69 69 70 70 70 70 71 71 70 70 69 69 68 67 66 65 64 63 58 58
60 62 63 64 66 68 68 69 68 68 68 68 65 63 65 65 68 69 70 69 69 68 68 66 66 66 65 64 62 57 57 57
60 61 62 64 67 64 64 66 64 64 63 63 63 63 63 65 66 68 68 68 67 66 66 65 62 58 58 60 56 56 55 56
61 61 62 63 64 62 61 62 62 62 63 61 61 62 61 61 59 61 60 63 60 61 60 59 57 57 56 54 54 53 52 54
61 62 63 63 62 61 61 62 61 61 62 63 62 60 60 59 58 58 57 57 56 56 56 56 56 56 55 54 53 52 51 52
61 62 62 62 61 60 60 60 61 61 62 62 61 60 58 57 56 56 56 56 55 55 54 55 54 54 53 53 52 51 51 50
64 62 62 62 60 60 59 60 61 61 61 61 61 59 56 56 55 55 54 55 54 54 53 52 51 52 51 51 50 50 50 50
62 61 61 61 60 60 60 60 60 59 59 59 59 57 56 55 54 53 53 53 53 52 51 50 50 51 49 49 49 49 49 49
61 65 61 59 59 59 59 59 59 58 58 57 58 57 56 54 53 52 52 52 52 51 50 48 47 48 46 46 46 48 48 48
60 61 60 59 58 58 58 58 58 57 56 56 56 56 56 54 53 52 52 51 50 51 48 48 46 47 48 45 44 45 46 50
60 59 58 57 57 56 56 56 56 57 57 55 56 55 55 54 52 51 51 49 48 48 47 45 45 45 51 46 43 43 44 44
60 58 57 57 56 55 54 54 56 57 57 56 56 55 54 53 51 50 49 48 47 47 45 45 44 43 43 42 41 42 43 43
59 59 57 58 60 56 56 54 54 58 57 55 55 54 54 52 50 49 48 47 46 46 45 43 42 42 40 38 36 40 42 43
59 59 58 59 59 56 53 53 53 54 51 51 53 54 53 52 50 48 47 46 45 44 44 44 41 42 42 40 36 34 36 40
59 59 58 59 58 59 55 55 51 52 53 54 52 53 52 51 49 47 46 45 44 44 45 43 42 41 40 43 40 40 36 34
57 58 58 59 59 59 56 53 52 51 50 51 50 50 50 49 48 46 45 44 44 45 44 43 41 40 39 39 38 37 36 34
57 58 58 59 59 57 56 53 51 51 49 49 48 47 46 47 47 45 45 45 46 45 45 43 41 41 39 39 39 37 36 34
58 58 58 59 58 58 55 54 55 54 52 50 48 45 44 45 46 45 45 45 47 45 45 45 40 39 39 38 38 38 39 37
58 59 59 58 57 58 56 57 56 55 54 51 50 48 47 47 48 48 46 46 46 46 44 43 41 39 38 37 38 39 38 37

GFSFLT2_sfc_temp_045.txt.gz
Temp
67 67 68 68 69 70 70 70 71 71 71 71 70 70 71 71 71 72 71 71 71 71 70 69 69 68 67 66 65 66 75 74
63 63 64 65 71 68 69 69 69 69 70 70 69 70 70 70 70 71 71 71 70 70 69 68 68 66 66 65 64 66 74 74
59 60 63 64 67 70 69 69 69 69 70 68 69 76 75 75 70 69 70 69 69 68 67 66 66 65 65 64 66 72 72 73
59 61 62 64 68 70 68 69 69 69 71 72 74 72 73 74 71 68 68 67 67 66 66 65 68 71 70 67 70 69 71 72
63 63 63 63 66 64 66 68 68 69 70 71 70 72 71 72 71 71 70 68 71 70 70 70 68 69 68 68 68 69 71 71
62 62 62 62 64 66 66 67 70 69 70 70 70 68 66 68 69 69 68 69 68 69 68 66 66 66 66 66 65 68 70 70
62 63 65 66 66 66 66 67 69 68 69 69 69 67 66 67 67 69 69 68 68 67 67 67 66 65 65 64 64 64 64 68
66 67 66 66 65 65 66 69 70 69 69 68 69 70 68 68 67 67 67 68 68 67 67 66 65 65 63 63 63 64 64 64
65 66 67 67 68 67 68 67 69 69 68 68 68 67 66 66 65 65 66 66 64 64 64 65 65 64 61 62 63 62 64 63
66 68 67 66 67 67 69 68 67 66 66 66 66 66 65 65 65 65 64 65 65 61 64 63 63 64 62 62 63 63 62 62
66 67 67 66 66 66 67 67 67 67 66 67 65 65 64 65 66 64 64 64 61 64 62 63 61 62 62 61 62 62 61 63
68 68 67 66 66 66 67 66 65 65 66 67 66 66 65 65 65 63 61 59 61 62 60 61 61 62 62 61 60 60 61 61
67 66 66 66 65 63 64 64 64 65 66 65 65 66 65 64 63 62 62 62 61 60 59 59 60 59 60 59 58 56 57 60
67 67 67 66 68 66 67 67 66 68 62 59 61 64 64 61 61 62 62 61 59 59 59 58 59 58 57 55 53 53 56 57
67 68 68 67 68 67 65 65 64 64 61 61 62 63 62 59 61 61 60 61 59 59 59 58 57 56 54 54 52 52 53 55
67 67 67 67 66 66 64 66 64 64 62 63 61 61 60 59 60 60 59 59 58 58 59 58 56 54 54 54 54 54 51 49
66 66 66 66 65 67 65 66 66 64 62 61 60 58 59 59 59 58 58 59 57 57 55 55 50 47 53 53 52 53 52 49
64 65 65 66 65 64 64 63 61 60 59 58 57 60 59 58 59 58 57 57 56 56 55 51 49 51 54 54 53 52 51 49
65 65 64 64 63 63 63 63 62 62 60 54 53 57 56 56 57 55 56 56 54 52 46 46 50 48 50 53 53 52 53 51
64 64 65 64 62 63 64 63 62 62 59 56 55 56 57 56 55 55 54 51 50 46 47 49 52 53 51 51 52 53 52 51

GFSFLT2_sfc_temp_048.txt.gz
Temp
68 69 70 69 69 69 70 71 71 72 71 71 71 71 71 71 71 72 71 71 71 71 70 69 69 68 67 66 66 70 81 82
63 63 65 69 69 68 69 69 69 70 70 69 69 70 70 70 71 71 71 71 70 70 68 68 67 67 66 65 67 70 81 82
62 61 60 64 67 69 70 69 69 69 70 69 71 81 80 80 70 69 70 69 68 68 67 66 66 66 65 66 69 80 80 81
60 61 61 63 67 69 74 74 74 74 74 75 79 79 81 80 72 67 68 67 67 67 66 67 72 80 77 71 79 78 79 80
58 59 60 63 65 68 71 72 71 73 73 77 76 77 78 79 76 77 75 73 77 76 75 80 77 78 76 76 76 77 79 80
58 59 60 63 63 66 67 67 71 73 75 75 75 76 76 77 79 78 77 79 76 77 77 74 73 73 73 72 73 75 76 78
60 62 62 62 63 65 66 70 72 75 74 75 79 78 75 77 77 78 78 78 77 76 74 74 73 72 72 72 72 71 72 75
67 68 70 72 69 69 71 72 73 73 78 78 76 76 76 77 76 77 77 77 76 76 75 74 74 73 71 71 70 72 71 71
68 71 71 71 71 72 72 73 76 77 78 76 76 76 76 76 76 75 76 76 75 73 73 73 74 74 71 71 73 71 72 72
72 73 72 71 73 73 76 77 76 77 77 77 76 75 75 75 75 75 74 73 74 73 71 73 73 74 72 73 73 73 70 71
71 73 74 73 73 73 74 75 76 77 76 76 74 74 73 74 75 73 72 73 71 71 72 72 70 71 71 73 72 73 71 72
73 73 73 73 74 74 77 76 78 78 77 78 75 75 73 74 74 71 73 72 70 70 69 71 72 72 72 70 69 69 70 68
73 72 73 71 75 74 75 74 76 76 78 76 75 75 73 73 73 71 71 69 70 69 68 66 67 69 69 68 68 65 64 66
75 75 75 75 77 77 77 77 77 78 77 75 74 74 74 73 73 70 70 71 68 67 67 66 68 68 67 64 60 62 63 64
76 76 77 76 76 77 76 77 76 75 74 70 68 64 69 72 69 66 67 70 67 67 67 66 65 65 64 63 59 58 62 65
77 77 77 77 76 76 74 74 73 75 75 75 73 71 69 71 68 66 65 69 68 67 67 66 65 63 63 63 61 61 58 57
76 77 77 77 77 76 75 74 77 78 75 72 70 69 69 69 67 65 64 66 67 66 64 64 64 64 59 60 58 60 59 56
76 76 76 77 75 74 74 73 74 75 71 70 70 67 66 66 67 66 64 66 65 64 64 63 58 54 57 60 60 59 59 57
75 76 76 76 75 74 73 72 72 71 71 70 69 65 59 59 62 64 65 66 65 63 56 57 56 56 58 60 61 60 60 58
76 73 73 76 73 73 74 71 69 71 72 70 65 60 58 61 61 62 64 62 58 52 54 56 57 57 57 58 60 60 60 58

GFSFLT2_sfc_temp_054.txt.gz
Temp
68 69 70 69 69 69 70 71 71 71 71 71 71 71 71 72 71 71 71 70 70 70 69 69 68 69 69 68 67 69 71 71
66 67 67 65 68 69 69 70 69 69 69 69 69 70 70 70 70 70 70 70 70 69 68 68 68 68 68 68 68 68 72 69
66 65 64 64 65 68 69 69 69 69 69 69 69 70 69 73 69 69 69 69 69 68 67 67 67 67 68 68 69 69 70 68
63 64 64 64 64 65 65 68 69 70 70 70 71 69 71 70 68 67 68 67 67 67 67 67 67 66 66 67 67 68 68 65
60 62 63 65 64 64 63 64 64 68 68 69 68 68 68 66 66 66 65 66 67 66 65 67 69 67 66 65 66 66 64 64
59 60 60 60 61 62 62 62 65 67 68 69 68 68 67 66 67 66 65 66 65 66 65 67 67 68 67 66 66 64 63 61
58 60 59 59 59 59 60 62 64 66 67 70 69 67 67 67 67 68 68 68 67 67 66 67 66 67 66 66 65 64 65 63
58 59 59 59 58 58 59 62 66 67 68 68 70 68 67 68 68 69 68 69 69 68 66 66 65 65 64 65 64 63 64 63
58 58 59 59 59 60 61 65 68 67 68 68 68 69 69 69 68 67 68 69 69 67 66 66 65 66 63 63 63 64 64 64
60 62 59 58 58 59 65 66 67 67 67 68 69 70 69 68 67 68 68 67 67 65 64 63 63 63 61 60 62 63 63 63
62 62 61 62 62 64 67 68 68 69 68 69 69 69 69 67 68 68 68 66 65 65 63 63 62 61 62 60 60 60 61 67
66 64 65 64 64 66 68 66 69 70 71 72 70 70 69 67 67 67 66 65 64 64 62 63 62 61 69 64 59 59 59 58
66 66 66 65 66 66 66 65 68 69 71 72 70 70 69 68 66 66 65 64 64 63 62 61 59 60 57 57 57 57 57 57
67 68 67 68 68 68 68 68 69 71 72 70 70 69 70 68 66 66 64 64 64 62 61 57 58 58 55 54 50 52 54 57
69 69 69 69 69 71 72 71 70 70 71 71 71 70 70 69 67 66 65 64 61 60 60 58 55 58 57 53 49 47 49 53
72 72 72 71 72 71 70 70 68 69 70 71 71 69 68 70 68 66 64 63 62 60 61 60 60 56 57 58 55 51 47 49
72 73 74 74 72 72 69 69 69 70 69 68 70 68 67 67 66 65 63 62 61 60 59 60 59 57 56 55 50 52 53 49
72 73 74 75 73 72 71 68 69 68 68 68 67 67 66 66 67 64 62 60 60 59 59 59 58 56 54 53 52 51 51 50
73 73 74 75 74 73 71 70 69 69 68 69 67 66 65 65 63 62 61 61 59 58 57 57 55 51 50 49 51 50 51 50
74 74 74 76 74 73 70 71 69 66 67 69 67 67 66 65 62 63 60 58 58 57 54 51 50 49 49 47 48 48 49 50

GFSFLT2_sfc_temp_057.txt.gz
Temp
68 69 69 68 68 68 69 71 71 71 71 72 72 72 71 72 71 71 71 70 70 70 69 69 69 69 68 68 67 68 65 66
66 67 67 66 67 68 69 68 69 69 69 69 70 70 70 70 70 70 70 70 70 69 68 69 69 68 68 68 68 67 63 62
64 63 64 64 65 67 69 69 69 68 69 68 67 67 67 68 69 69 69 69 69 68 68 68 68 68 69 68 66 63 61 60
63 63 62 63 65 66 66 67 66 67 66 65 67 66 68 69 68 67 68 68 68 68 67 67 67 62 62 65 62 61 60 58
62 62 62 62 63 63 64 64 65 65 66 66 67 66 65 65 64 64 63 66 65 65 65 63 64 62 62 61 61 60 57 58
60 61 61 61 63 62 62 63 63 63 66 66 64 64 64 63 62 62 63 63 63 63 61 62 63 64 63 62 61 58 56 56
58 59 59 59 60 60 61 61 62 63 66 67 66 66 63 64 63 63 63 63 63 62 63 64 63 63 62 62 62 59 58 57
57 57 59 60 59 59 59 60 61 62 64 65 66 66 63 65 63 64 63 64 63 63 62 62 62 62 61 61 61 60 58 57
58 57 58 59 59 59 59 61 61 61 63 66 66 65 65 65 64 63 64 65 64 63 62 61 60 62 61 60 60 59 60 58
59 61 58 58 59 59 61 60 61 62 64 63 66 67 66 65 63 63 64 64 63 61 61 60 59 58 56 57 57 58 60 60
59 59 58 59 60 60 61 63 64 66 65 65 66 66 66 64 63 64 64 61 61 62 60 60 58 57 57 56 56 56 57 63
58 59 59 60 60 62 63 63 62 63 63 64 65 65 66 64 63 63 61 61 61 60 60 59 58 57 65 60 55 55 55 54
58 58 57 58 59 59 62 62 64 62 64 67 66 66 66 64 63 62 60 61 60 60 58 58 56 56 54 53 52 53 54 53
59 60 59 60 61 63 63 64 65 66 65 65 67 66 67 64 62 61 60 60 59 59 58 55 55 54 52 52 50 50 51 53
61 62 62 63 64 64 62 61 62 64 65 63 66 66 66 65 63 61 62 61 59 57 57 56 53 53 54 54 47 45 46 49
64 65 64 64 65 64 63 63 62 65 66 66 66 64 65 66 65 61 61 61 58 58 58 55 54 54 52 58 55 52 47 47
65 65 65 66 66 65 64 65 65 66 66 63 66 66 66 66 65 62 60 61 58 57 56 55 58 55 53 53 51 50 52 48
65 65 66 67 66 66 65 63 62 63 62 62 62 62 64 64 63 60 59 58 57 57 57 57 56 53 52 51 50 49 48 46
66 67 66 67 67 67 67 64 63 62 64 63 59 61 60 62 62 59 57 57 59 58 56 55 54 51 50 49 49 47 48 48
68 68 68 69 68 67 67 67 67 65 64 61 62 63 63 63 61 60 59 59 57 56 55 52 50 49 49 47 46 46 47 48

GFSFLT2_sfc_temp_060.txt.gz
Temp
68 69 69 69 68 67 67 70 71 71 72 72 72 71 71 71 71 71 70 70 70 70 70 69 70 69 68 67 66 66 61 62
66 67 67 66 66 66 67 68 69 70 71 70 69 70 70 70 70 70 70 70 70 70 69 69 69 68 67 66 65 64 59 59
66 65 66 65 66 67 69 69 68 68 68 68 67 68 67 68 68 69 69 69 69 69 68 67 66 67 67 66 64 58 58 58
62 63 63 64 65 67 67 68 68 67 65 65 65 65 66 67 67 68 68 68 68 68 67 67 65 60 62 63 58 58 57 58
62 61 62 63 63 64 65 64 64 63 64 65 65 66 66 65 65 64 64 65 63 64 63 62 62 60 59 58 58 57 55 57
61 61 61 61 62 63 62 63 64 63 65 65 64 64 65 63 63 62 62 61 62 62 60 61 62 62 61 59 58 55 53 55
59 60 60 60 61 60 60 61 62 63 65 64 65 64 63 62 62 61 61 62 61 61 60 61 62 61 61 60 57 56 56 55
59 59 60 61 60 59 59 60 61 63 63 62 64 64 63 62 61 62 60 61 61 61 61 61 61 61 59 59 58 56 56 55
58 58 59 59 60 59 59 60 61 62 63 64 64 64 63 62 62 59 60 61 60 61 61 60 59 61 60 59 58 56 56 56
58 60 59 59 60 59 62 61 60 61 62 63 65 64 64 62 60 60 61 61 60 60 59 58 58 57 56 56 56 56 56 56
57 59 58 59 59 61 61 61 61 62 63 63 64 64 64 62 62 62 61 60 60 62 58 58 56 55 55 54 54 55 56 59
58 58 59 59 59 60 60 60 61 63 63 63 63 63 64 62 61 61 61 59 59 59 59 57 57 56 62 58 53 53 53 52
57 57 57 58 59 58 59 59 61 62 63 64 63 63 64 62 61 61 60 59 59 59 57 57 55 54 53 51 51 51 51 51
56 57 57 59 61 61 61 62 64 63 63 62 62 63 64 63 61 60 59 58 57 57 57 54 55 53 52 50 51 54 51 51
57 57 57 58 59 60 58 58 58 60 61 61 62 63 64 64 62 61 59 59 59 56 56 55 54 51 52 52 45 46 46 47
58 59 58 60 60 60 60 60 60 63 64 64 64 62 64 65 64 62 60 60 59 59 58 56 56 56 53 54 52 52 46 48
58 59 59 61 61 62 60 60 61 63 63 62 62 61 63 64 64 61 60 60 59 58 55 56 57 56 53 52 50 50 51 48
60 59 60 61 61 62 61 60 61 61 61 61 62 63 62 63 64 62 61 60 59 58 58 56 54 54 53 52 49 49 46 47
61 61 60 61 61 61 62 61 61 61 62 61 61 61 61 62 62 61 60 60 59 58 57 54 53 53 52 50 50 49 49 48
61 62 62 63 62 62 62 63 63 62 62 62 61 61 63 63 61 61 59 58 58 57 55 54 53 51 50 49 46 48 48 48

GFSFLT2_sfc_temp_063.txt.gz
Temp
67 68 68 67 67 68 68 69 70 71 72 72 71 70 70 71 70 70 70 71 71 71 70 69 69 68 67 66 65 65 58 60
66 66 66 66 65 66 67 67 70 71 71 70 69 69 70 70 70 70 70 70 70 70 69 68 68 67 66 65 65 64 58 58
66 65 65 64 64 65 67 68 71 70 70 68 67 67 66 65 68 69 70 69 69 68 67 67 67 66 66 65 63 57 57 57
64 64 63 63 63 63 63 64 66 67 68 67 65 64 63 66 67 68 68 68 68 67 66 66 64 62 62 62 57 57 57 57
62 63 64 63 63 62 63 64 65 65 65 65 64 64 64 63 64 63 62 65 64 63 61 61 61 59 57 56 56 55 55 57
61 62 63 63 64 63 64 65 65 65 64 65 65 63 63 61 63 61 62 61 61 61 59 60 60 58 57 56 55 54 54 55
60 61 61 61 62 61 62 62 63 63 64 64 65 63 62 62 62 60 59 61 59 60 59 60 59 59 57 56 55 54 55 55
59 60 60 61 61 61 60 61 61 62 63 63 64 64 62 63 61 60 58 60 60 58 59 59 58 59 56 56 55 55 55 54
58 59 60 60 60 60 59 61 62 62 62 62 62 63 63 62 62 60 59 60 59 58 58 57 57 59 58 56 55 54 55 56
59 60 59 58 59 59 60 60 61 62 62 62 62 62 63 62 59 58 59 59 58 57 57 56 56 56 55 54 55 55 55 55
57 58 58 58 58 58 59 60 61 61 62 63 63 63 62 61 60 59 59 57 58 59 57 56 55 54 54 53 53 54 54 57
58 58 58 58 58 58 59 59 60 62 62 63 63 62 63 60 59 59 59 58 57 57 57 55 55 54 60 56 53 52 52 51
57 57 57 58 56 58 58 57 59 61 62 63 63 62 63 61 59 59 59 58 58 57 55 55 54 53 52 51 50 50 50 50
57 56 54 56 58 59 58 62 61 62 62 62 62 62 62 61 60 59 59 58 57 56 55 53 53 52 51 48 47 49 49 50
57 55 55 56 57 61 57 59 60 60 60 60 60 61 62 62 61 60 59 58 57 55 55 54 53 51 52 53 46 45 45 47
56 55 55 57 57 55 55 57 58 60 62 59 60 60 61 62 61 60 59 58 56 56 57 56 54 52 52 54 53 52 49 48
54 55 55 57 57 58 57 56 58 58 57 57 58 58 59 60 60 59 59 58 58 57 55 54 55 54 53 50 50 48 49 48
54 55 56 57 57 57 57 57 58 58 55 56 58 58 57 58 59 59 59 59 58 58 58 56 56 56 53 52 50 48 47 45
55 55 56 57 57 57 57 57 57 57 59 58 59 58 57 58 58 59 59 59 59 58 57 57 55 54 53 54 52 51 50 48
56 56 56 58 57 57 59 59 59 59 59 60 59 59 61 59 58 59 60 59 57 57 56 55 54 54 53 51 51 50 49 48

GFSFLT2_sfc_temp_066.txt.gz
Temp
66 67 69 70 69 70 70 70 71 71 72 72 72 71 71 71 71 71 71 70 70 70 69 68 68 67 67 66 65 65 60 61
66 66 67 64 65 66 66 67 69 70 70 70 69 69 70 70 70 70 70 70 70 69 68 68 68 67 66 65 65 64 58 59
64 64 65 64 64 64 65 67 70 70 69 68 67 65 65 65 69 69 69 69 69 69 68 67 66 66 66 65 63 58 59 59
64 64 63 64 64 64 64 65 66 69 68 66 65 62 62 66 67 68 68 68 67 68 67 66 65 62 63 62 57 57 58 59
63 63 63 62 61 62 64 63 63 64 65 65 64 63 63 63 64 65 65 65 64 65 63 61 58 57 56 56 57 57 57 58
62 63 62 61 61 60 62 62 63 63 63 64 64 63 59 59 60 59 58 58 59 59 57 57 57 56 56 55 56 56 56 57
60 62 62 62 61 60 60 62 64 63 63 64 65 62 59 59 59 59 59 57 59 57 58 59 58 56 56 56 55 55 56 57
60 61 62 62 62 62 62 63 64 64 64 64 64 63 60 60 60 60 59 58 58 59 59 58 56 56 55 55 54 54 55 55
59 59 61 61 61 61 61 62 63 63 63 62 62 62 60 60 59 59 59 59 59 58 57 57 55 57 55 55 54 54 54 55
59 60 59 59 59 59 60 61 62 60 61 61 63 63 61 60 57 57 59 59 59 58 56 55 55 55 53 53 54 54 55 55
58 59 59 58 58 59 59 60 61 60 60 61 62 62 61 61 60 58 60 58 58 58 56 56 55 55 54 53 53 53 54 57
58 58 58 58 58 58 58 58 59 60 61 62 62 62 62 60 59 59 58 57 57 56 56 55 56 56 59 56 53 53 53 52
58 57 57 57 57 56 57 56 59 59 61 63 62 62 62 61 59 59 59 58 57 57 56 55 54 54 53 52 52 52 51 50
57 57 57 59 60 60 58 58 59 59 60 61 62 62 62 61 60 59 58 57 57 56 56 53 54 53 52 49 49 51 50 50
57 57 57 57 59 60 59 59 58 58 59 59 61 61 61 61 60 59 58 58 57 55 55 55 53 51 52 54 48 46 47 49
57 56 54 55 55 54 55 58 59 61 61 60 61 61 61 61 61 59 58 57 57 57 56 55 53 51 51 52 51 50 48 48
58 57 53 56 56 56 55 54 61 59 59 59 59 59 60 60 59 59 58 58 58 56 55 54 54 53 52 50 50 49 49 50
57 56 54 55 55 54 54 55 55 55 53 53 54 55 56 57 58 57 57 56 56 57 56 55 55 55 53 52 51 49 48 47
55 54 53 54 55 55 55 55 55 56 57 54 53 54 54 54 56 56 56 57 57 57 55 54 54 54 55 53 54 54 52 51
52 53 53 54 55 55 56 56 56 56 55 57 54 54 55 56 55 56 56 57 56 55 55 56 56 55 55 54 54 54 52 50

GFSFLT2_sfc_temp_069.txt.gz
Temp
68 72 72 70 70 69 70 71 71 72 72 72 72 72 71 72 72 72 72 71 70 70 69 69 68 68 67 66 65 68 74 75
67 69 68 71 71 69 69 69 70 70 71 71 70 70 71 70 70 70 71 70 70 69 68 68 67 67 66 65 65 67 74 74
67 67 65 65 66 68 66 67 67 70 70 69 69 73 72 72 70 69 70 69 69 69 68 67 66 66 66 65 67 73 74 74
65 65 63 63 64 63 63 63 63 66 68 71 72 69 71 71 69 68 69 69 68 68 67 66 69 72 71 66 72 72 73 73
64 64 64 63 63 63 63 63 63 64 67 67 69 70 70 70 71 71 72 70 73 71 70 73 71 71 70 70 70 71 72 73
63 64 63 63 63 63 64 65 63 63 67 69 69 68 67 68 70 70 69 72 71 70 71 68 69 69 69 68 69 71 72 73
62 63 62 61 61 63 64 65 66 64 65 69 69 67 65 69 68 68 70 71 70 70 69 69 68 68 69 69 68 69 70 72
61 61 62 61 60 62 62 63 65 64 64 67 67 67 67 69 68 69 69 71 70 70 69 68 69 69 66 67 68 69 69 69
61 61 62 61 60 62 62 63 63 63 63 63 65 67 68 69 69 68 68 69 68 68 67 67 67 68 66 66 67 67 68 69
64 61 61 62 62 63 62 63 63 64 63 62 64 67 68 68 68 68 68 68 69 68 66 66 66 67 66 66 66 67 66 67
61 60 59 60 61 62 62 62 63 62 61 61 65 67 67 68 68 67 67 66 67 67 66 66 65 65 65 64 65 66 66 68
60 60 59 59 59 60 60 62 62 62 61 61 63 67 67 66 66 65 66 65 66 66 65 65 66 66 66 64 64 65 66 66
60 58 58 59 59 60 58 57 59 60 60 61 62 65 66 64 64 65 64 64 65 65 65 62 64 64 63 64 64 63 64 66
60 59 58 60 61 62 62 61 60 60 61 61 62 64 66 65 63 65 65 63 63 61 62 62 62 62 62 62 61 63 64 64
60 60 59 60 60 59 58 57 57 58 58 58 60 63 65 64 63 64 63 63 62 61 61 62 62 60 62 64 58 59 62 63
62 62 62 63 62 58 58 59 56 58 59 60 60 61 62 64 64 63 61 63 62 61 63 63 64 61 60 61 62 63 61 60
62 62 62 63 63 63 61 60 61 59 58 59 60 60 61 62 64 62 63 61 62 64 62 62 62 63 61 61 60 59 60 61
61 61 61 63 62 63 63 63 63 60 60 62 60 60 62 62 63 65 65 66 65 64 64 64 63 63 63 62 61 60 57 52
60 60 60 60 61 61 62 62 63 63 62 64 60 60 62 63 65 65 65 65 65 66 64 64 63 62 62 61 59 58 54 55
59 58 58 59 61 62 62 63 64 65 65 65 64 66 66 66 65 66 66 66 66 65 65 64 64 62 62 61 56 56 56 56

GFSFLT2_sfc_temp_072.txt.gz
Temp
76 77 76 69 70 72 71 71 72 72 72 72 72 72 72 72 72 72 72 71 70 70 69 69 68 68 67 67 68 70 83 83
69 75 77 78 76 68 69 72 70 71 71 71 70 71 71 71 71 71 70 70 70 69 68 68 68 67 66 66 67 70 83 82
68 72 73 72 72 72 70 71 70 69 70 69 69 76 77 75 73 69 70 69 69 68 68 67 67 66 66 66 67 81 81 82
73 71 72 68 66 66 65 66 68 68 68 69 71 75 77 78 72 68 68 68 68 68 67 66 70 76 74 68 81 80 81 81
71 66 67 65 63 63 62 62 62 66 68 68 71 73 75 75 75 74 74 71 76 73 72 79 78 78 77 78 77 79 80 80
70 69 66 65 63 62 62 61 61 63 65 67 70 73 74 74 76 76 76 78 76 76 78 78 77 77 77 76 77 79 80 79
65 67 67 64 64 64 62 62 61 63 64 68 73 73 73 73 75 79 78 79 78 78 77 77 76 76 77 76 76 77 77 79
63 63 64 63 63 62 63 62 62 63 63 68 72 73 72 73 72 76 78 80 79 79 77 77 77 77 76 76 76 76 77 77
63 62 61 61 62 61 63 63 64 63 63 68 73 73 72 72 73 75 77 79 78 78 76 77 77 77 75 75 75 75 76 75
62 63 61 61 62 61 62 63 63 64 64 68 72 73 71 71 74 75 77 76 76 76 75 74 75 75 73 74 75 75 75 75
62 63 61 62 63 61 62 63 63 63 63 64 68 73 73 75 75 76 74 75 76 75 74 74 72 73 73 74 73 74 73 76
63 63 61 61 61 63 62 62 64 62 62 62 65 70 71 74 74 72 73 74 73 73 71 73 73 72 74 72 72 73 75 74
64 59 59 60 61 60 59 60 61 62 63 63 65 70 73 73 74 72 71 71 72 71 71 68 70 71 70 69 70 71 71 74
63 60 59 62 61 62 61 61 62 64 62 62 63 69 73 70 67 68 69 70 71 69 67 65 68 67 67 69 64 68 71 71
67 63 63 63 65 66 62 59 59 59 60 61 61 64 71 68 64 64 64 69 69 68 67 67 66 66 68 68 64 64 68 73
68 65 66 63 64 63 65 65 59 63 61 61 60 62 65 66 63 63 64 67 69 68 66 69 70 65 66 68 70 70 66 62
65 66 69 64 62 64 64 67 62 62 62 60 59 59 62 65 63 63 63 65 66 67 66 68 71 68 67 68 66 67 67 65
67 68 68 66 65 63 61 62 63 61 58 60 58 59 60 61 65 66 68 65 68 68 66 67 68 69 70 69 68 67 66 65
68 70 69 69 67 66 65 65 65 63 60 61 59 59 60 61 63 63 66 69 63 66 67 67 71 70 68 70 70 69 69 66
68 70 71 71 68 69 69 69 67 67 67 68 67 67 67 68 66 65 66 67 65 67 68 71 70 69 69 69 70 70 69 65

GFSFLT2_sfc_temp_078.txt.gz
Temp
74 73 73 69 69 68 67 66 65 67 73 73 72 72 72 72 72 72 71 71 70 70 69 69 69 69 69 68 68 69 74 72
73 74 73 72 71 68 66 66 65 67 72 71 70 71 71 71 70 70 70 70 70 69 68 68 68 68 68 68 68 69 74 71
71 72 73 72 72 69 68 68 65 66 71 70 68 71 71 70 70 69 69 69 68 68 67 67 67 67 68 67 68 73 73 70
70 70 72 71 70 69 68 67 66 66 67 68 69 68 69 70 68 68 68 68 67 67 66 66 68 66 65 67 67 74 72 68
72 71 71 70 68 68 67 67 66 66 66 65 65 65 66 66 66 67 66 66 66 66 65 68 67 67 67 67 69 74 70 69
73 70 68 68 66 66 68 67 66 64 64 64 63 63 64 65 65 66 66 67 65 64 65 67 67 68 69 69 70 73 69 67
70 69 68 67 65 63 65 64 65 64 63 64 64 64 64 66 65 68 68 67 67 66 67 69 68 68 69 70 70 72 68 67
69 68 68 66 64 62 60 62 63 63 63 64 64 64 65 67 66 68 68 69 68 68 68 67 67 68 68 69 71 71 69 67
68 67 67 66 65 63 62 61 61 62 62 63 63 63 65 67 67 69 69 70 69 67 68 67 66 69 67 67 68 71 69 67
68 66 66 64 65 63 62 61 61 61 62 62 63 64 66 67 68 69 70 70 70 68 66 65 65 65 64 65 66 67 68 67
67 64 62 63 64 61 61 61 61 61 61 61 61 64 67 67 65 68 67 71 68 69 66 65 64 64 65 65 64 65 66 70
68 63 61 61 61 61 60 60 61 62 62 62 63 65 66 65 65 65 64 64 66 65 66 66 64 65 72 67 63 63 64 63
66 61 60 61 60 59 59 58 60 61 62 62 63 66 67 66 66 65 65 65 65 65 65 64 63 64 61 60 60 62 62 63
65 64 62 61 62 62 62 61 61 63 63 63 65 66 68 67 66 66 65 65 64 65 64 62 62 62 59 58 54 57 60 62
67 66 63 62 63 63 62 61 61 60 60 60 61 63 68 68 67 66 66 65 65 64 64 63 59 61 62 58 54 52 55 59
68 65 65 64 63 62 60 59 57 60 61 62 61 62 63 67 66 65 64 64 63 64 65 63 61 58 59 62 61 60 54 53
68 66 65 64 63 63 61 60 61 63 61 61 60 60 61 63 66 64 64 63 63 63 63 62 61 59 59 59 59 58 58 56
68 66 65 64 64 63 63 62 61 61 60 58 58 59 60 61 64 63 62 62 62 63 64 62 59 61 59 59 58 57 56 56
69 66 65 65 63 63 62 62 63 60 61 61 60 59 59 61 62 62 62 62 62 61 60 60 60 59 59 60 60 61 60 59
69 67 66 66 63 63 63 64 63 63 62 63 62 62 61 63 62 62 62 62 62 61 61 60 60 60 60 60 59 61 61 60

GFSFLT2_sfc_temp_081.txt.gz
Temp
67 68 69 69 69 69 68 68 69 66 66 67 70 72 72 72 72 72 71 71 71 70 70 70 70 69 69 68 68 69 67 67
68 68 67 65 65 67 67 67 67 66 66 66 70 70 71 71 71 70 70 70 70 70 69 69 69 68 68 67 69 68 67 65
66 69 69 66 65 66 67 67 66 67 67 66 68 70 69 69 69 69 69 69 68 68 68 68 68 68 68 67 68 68 66 65
65 66 66 67 68 65 64 65 64 63 63 67 67 67 67 68 68 68 68 67 67 67 67 67 67 64 65 66 68 67 66 65
65 65 65 65 65 64 64 64 63 63 64 65 66 66 66 65 66 66 65 65 65 65 66 65 63 63 64 64 67 66 65 66
66 66 65 65 64 63 63 64 64 64 65 64 64 64 64 64 64 64 64 60 60 61 62 63 63 65 66 65 67 65 64 64
64 66 65 63 62 60 62 63 65 65 64 64 64 64 64 64 63 64 64 64 63 62 61 64 64 65 66 66 66 64 64 64
63 65 64 61 61 60 62 63 64 64 64 63 64 64 64 64 64 64 64 64 64 64 64 63 63 64 64 65 66 64 64 62
62 63 64 61 59 60 61 62 63 63 63 64 64 64 64 65 65 63 64 63 64 65 64 63 62 65 64 64 66 64 64 62
63 65 63 62 59 60 61 62 62 62 62 63 64 63 65 65 66 65 65 63 65 64 65 62 61 62 61 61 63 64 63 63
61 62 63 62 61 59 60 61 61 61 62 62 63 63 64 65 66 65 65 65 64 65 64 64 62 60 61 60 61 63 62 65
61 61 62 62 61 60 59 60 60 61 61 62 63 65 65 65 64 62 64 62 63 64 64 61 62 63 69 64 59 60 63 62
60 60 60 61 60 58 58 58 59 60 61 61 62 65 65 66 63 62 62 62 64 64 61 62 60 61 59 57 58 58 58 58
59 60 60 60 60 60 60 60 61 62 61 61 62 62 65 64 63 62 62 63 62 61 62 59 60 60 57 56 52 56 57 58
59 61 60 61 62 62 61 61 60 59 59 60 60 62 64 66 64 64 63 64 63 62 62 61 58 58 62 55 51 51 52 55
60 60 60 61 62 61 59 58 57 59 60 61 61 61 63 66 63 64 62 62 63 63 64 64 58 56 56 60 58 57 51 50
60 60 62 62 62 62 60 59 60 61 60 60 60 59 61 61 62 61 61 60 60 61 62 61 59 58 56 55 55 55 55 53
60 60 62 62 62 62 61 60 60 59 59 59 59 58 56 58 62 63 63 60 59 60 60 60 60 59 58 58 57 55 54 53
60 60 60 62 62 62 62 61 61 60 60 60 60 59 59 60 59 61 62 62 60 61 60 60 59 59 60 59 58 58 59 58
63 60 60 61 62 62 63 63 62 62 62 62 61 61 61 63 60 61 62 62 61 60 60 60 59 58 58 58 58 59 59 59

GFSFLT2_sfc_temp_084.txt.gz
Temp
66 67 69 70 69 69 68 68 69 69 69 68 70 69 71 72 72 72 72 72 71 71 70 70 70 69 69 68 67 67 65 66
65 67 68 66 65 68 68 68 68 67 68 68 69 68 69 72 70 71 71 71 70 70 69 70 69 68 68 67 66 67 64 62
65 66 67 65 64 66 67 68 67 67 68 68 67 67 68 72 69 69 70 69 69 69 69 68 67 68 68 67 67 65 64 63
64 67 66 65 65 64 63 65 64 63 64 64 65 68 68 69 68 68 68 68 68 68 68 67 66 66 67 67 65 65 64 62
64 64 65 65 65 63 63 62 62 62 63 65 66 67 67 66 66 66 66 66 64 64 65 63 62 64 66 65 64 64 64 64
63 64 63 63 64 64 63 63 61 62 64 65 66 65 64 65 65 65 64 61 59 58 59 60 61 63 66 64 63 63 62 63
62 63 63 64 63 62 63 64 63 64 64 65 65 64 64 64 64 64 64 62 60 57 59 61 61 63 66 64 62 62 61 62
62 61 62 61 60 61 62 64 63 64 65 64 64 64 64 63 63 63 63 64 63 63 62 59 62 63 65 64 63 63 62 60
61 60 60 58 58 60 62 64 64 63 64 64 64 64 63 63 62 62 63 63 63 62 60 60 61 62 63 62 62 62 61 60
61 62 59 58 59 60 61 62 63 63 63 63 64 65 64 63 63 62 63 60 61 59 61 60 61 60 60 61 61 61 61 61
62 61 59 59 59 60 61 62 61 62 62 63 64 64 64 63 64 62 62 61 59 61 59 61 61 60 60 60 60 59 60 62
62 62 61 60 59 60 60 60 61 62 62 62 63 64 65 64 63 61 61 61 61 60 61 61 63 60 65 61 60 59 57 59
60 61 61 60 59 58 58 58 59 60 62 62 63 64 64 64 64 62 62 62 63 62 61 62 59 59 56 55 56 57 58 57
59 60 61 61 61 60 60 60 60 61 61 61 62 63 64 64 65 63 64 62 61 61 60 57 57 58 58 55 52 55 57 56
59 61 61 61 61 61 60 60 59 59 59 59 60 61 63 64 63 63 62 61 61 60 61 62 59 57 60 54 50 50 51 54
58 61 61 61 61 60 59 58 57 59 59 61 61 60 61 64 64 62 61 60 60 62 63 62 57 57 56 59 57 55 50 48
58 61 62 62 61 61 59 59 60 60 58 55 59 58 60 62 62 61 61 62 60 62 60 59 58 56 57 55 54 54 53 51
59 59 60 62 61 61 60 59 59 59 59 58 58 59 58 59 61 62 61 61 61 59 60 60 59 57 56 58 56 54 53 52
58 58 58 60 61 61 61 60 61 59 59 59 58 58 57 59 59 60 61 62 62 62 60 59 59 58 58 60 59 58 57 55
59 58 57 58 60 61 61 61 61 61 61 61 59 60 61 62 59 60 62 62 61 61 61 60 59 59 57 57 59 58 58 57

GFSFLT2_sfc_temp_087.txt.gz
Temp
68 68 69 69 69 69 68 69 68 68 68 70 70 70 69 69 72 73 73 72 71 71 70 70 70 68 68 67 66 67 64 66
64 65 68 67 66 68 68 67 67 68 69 69 69 69 69 69 70 73 72 71 71 70 70 69 69 68 67 66 66 66 64 65
63 66 67 66 64 66 68 68 68 68 68 68 67 66 68 68 68 72 71 70 70 69 68 68 68 67 66 66 66 63 63 62
64 64 64 65 65 63 62 64 64 63 64 65 66 66 67 68 68 69 69 68 68 68 67 67 67 65 65 65 63 63 62 61
62 64 65 64 64 62 62 63 63 62 62 62 63 64 65 66 66 66 66 67 66 66 64 63 65 64 62 61 63 63 63 64
62 63 64 65 64 63 63 62 62 61 63 63 63 64 64 66 65 64 64 64 61 61 59 60 62 63 62 61 62 63 62 62
62 62 62 62 64 63 63 62 61 62 64 64 64 64 64 65 65 64 62 62 62 61 59 61 62 62 62 61 62 62 60 62
61 62 62 62 62 63 63 63 62 62 63 64 65 65 64 64 64 62 63 63 60 61 60 60 61 63 60 61 62 61 60 58
62 60 59 60 60 61 63 63 63 63 63 64 64 64 64 64 63 62 63 64 63 63 59 59 61 64 60 60 61 61 59 58
60 61 58 57 59 60 62 63 63 63 64 64 63 63 63 62 62 62 62 62 62 62 62 60 60 61 59 60 60 60 58 57
60 58 57 57 59 59 61 62 62 63 62 63 63 63 62 62 62 61 60 61 61 62 59 61 58 58 59 57 57 57 57 60
62 59 57 58 59 60 60 61 61 62 62 62 63 63 61 60 60 59 61 59 59 57 59 58 58 59 62 59 56 56 57 56
62 59 58 58 58 58 58 58 60 60 62 62 63 63 61 60 59 59 60 61 60 59 59 58 54 56 54 53 54 55 55 55
61 61 60 58 60 60 60 59 60 61 61 62 62 63 62 61 61 60 62 61 60 57 59 57 55 56 55 53 50 53 54 56
61 62 61 59 59 61 60 58 59 58 58 60 60 62 62 61 60 61 61 62 60 60 59 59 56 56 60 54 49 49 51 53
59 61 61 62 59 58 59 58 57 59 59 59 59 60 61 62 61 60 61 61 60 60 61 62 57 57 55 57 57 54 50 48
58 59 61 61 61 60 59 58 59 59 59 58 59 58 60 62 61 60 60 61 61 60 59 58 57 57 55 54 54 53 53 51
57 60 61 61 61 60 60 59 59 57 57 57 57 58 58 59 61 61 61 60 59 60 58 57 56 57 59 58 57 55 53 52
60 60 60 61 60 60 60 60 60 59 58 57 57 58 57 57 58 60 61 61 60 59 59 57 57 56 58 59 58 57 57 55
59 58 59 60 61 61 61 61 61 58 58 57 56 58 59 57 57 59 61 61 61 60 59 59 59 58 57 58 59 59 57 57

GFSFLT2_sfc_temp_090.txt.gz
Temp
69 70 71 70 69 69 68 69 69 71 71 70 71 70 70 71 72 72 73 73 72 71 70 70 69 69 68 67 66 67 64 66
67 68 69 69 69 68 68 68 68 67 68 70 69 68 68 71 71 71 72 72 71 70 69 69 68 67 67 66 66 65 63 65
66 67 66 66 66 68 68 68 67 67 68 68 67 66 67 68 69 70 72 71 70 69 69 68 67 66 66 66 65 61 63 62
64 66 65 64 66 64 64 65 64 64 64 64 66 64 65 66 66 68 70 69 68 68 68 67 66 64 65 65 63 62 62 61
64 64 64 63 64 62 61 62 63 62 62 65 65 63 65 64 64 65 66 67 65 66 66 65 64 64 60 60 61 61 61 62
63 65 65 64 65 63 63 63 63 62 62 63 64 63 64 64 64 65 65 64 63 62 61 62 62 62 60 60 60 60 59 61
61 64 65 65 63 63 62 62 62 62 62 62 63 64 63 64 65 65 63 64 63 60 60 62 60 60 61 60 59 59 60 62
61 62 63 64 64 63 62 62 62 61 62 63 63 63 64 63 64 63 61 63 64 61 61 62 61 60 58 59 59 59 59 60
63 63 60 62 63 63 63 63 62 62 63 63 63 63 64 64 63 62 61 62 59 59 59 59 59 60 58 58 59 59 59 60
64 63 60 58 58 62 63 63 62 62 63 63 64 65 64 64 62 61 62 62 61 59 59 59 59 59 57 59 57 58 58 59
62 61 59 60 60 60 61 63 62 63 63 63 63 63 63 62 61 60 61 62 62 61 59 60 58 58 58 57 56 57 58 60
63 59 58 58 58 59 60 61 61 63 63 63 63 62 61 61 60 58 60 61 60 60 60 59 59 59 61 55 54 56 57 57
61 58 58 58 58 58 58 59 60 61 62 62 63 62 60 60 59 59 59 60 60 59 57 57 55 58 55 52 53 54 56 56
61 60 58 58 60 60 57 59 60 61 61 62 63 61 60 59 59 59 60 59 59 59 57 55 55 58 54 53 49 52 55 55
61 61 59 59 60 61 58 59 59 58 59 60 61 61 60 60 59 58 57 59 59 59 56 56 56 56 60 54 48 49 51 54
63 62 60 59 61 60 59 59 56 58 59 59 60 61 60 60 59 58 58 58 59 60 60 57 57 55 55 57 57 54 51 49
62 62 61 60 59 61 59 57 56 59 58 58 58 59 60 60 59 58 59 59 59 60 59 57 57 57 56 54 54 54 54 51
60 60 61 61 60 60 59 57 56 57 57 57 58 58 59 59 59 59 59 59 58 58 58 57 57 57 59 56 55 54 53 52
59 59 59 60 60 60 59 58 59 57 58 58 57 57 57 58 59 59 59 60 61 59 58 57 58 56 57 58 57 58 57 56
58 57 57 59 59 59 60 57 59 60 59 59 59 59 59 59 59 59 60 61 61 60 59 59 57 57 56 56 56 59 58 57

GFSFLT2_sfc_temp_093.txt.gz
Temp
71 74 74 70 70 70 69 70 70 72 71 72 72 71 71 71 71 72 73 73 71 71 70 70 70 69 68 67 67 69 78 78
71 72 73 76 73 69 69 69 70 69 70 70 68 69 70 71 70 71 73 72 71 70 69 69 69 68 67 67 66 68 78 78
70 70 71 73 70 69 69 69 68 68 70 69 68 75 74 73 71 71 72 72 70 69 68 68 67 67 67 66 68 77 77 78
68 69 71 71 70 70 68 68 69 69 70 72 72 72 73 73 72 69 70 71 69 68 68 66 69 74 73 68 75 74 75 77
66 67 69 71 69 69 67 67 67 67 68 68 70 71 71 71 72 71 71 70 66 66 68 73 73 73 73 73 73 74 75 76
67 67 66 69 71 69 67 66 66 66 68 70 70 68 69 70 72 71 69 66 64 65 70 71 71 71 71 71 72 71 72 76
67 67 66 67 67 66 66 67 66 67 66 67 69 65 67 70 67 69 65 63 62 65 69 71 70 70 70 71 71 72 73 75
69 66 67 66 65 65 66 65 64 64 65 66 69 66 68 68 67 66 66 63 61 63 71 71 71 71 70 70 71 72 72 73
68 66 66 65 65 65 65 65 65 63 64 67 67 67 67 67 64 64 65 64 60 62 69 70 70 71 69 70 71 71 72 71
70 67 65 64 65 65 64 65 65 66 65 65 65 64 65 64 63 63 62 60 59 63 68 68 68 69 69 70 71 71 71 71
69 67 63 63 63 64 64 65 65 66 67 65 65 64 64 64 63 62 61 60 60 66 66 68 67 68 69 69 69 70 70 71
70 65 63 63 63 62 63 64 64 65 65 65 64 63 63 63 62 61 61 60 63 65 65 66 68 68 68 67 68 69 70 69
69 61 62 61 59 59 60 61 62 63 64 66 64 62 61 60 60 61 63 62 65 66 64 65 65 68 64 63 64 65 65 67
66 62 61 61 62 64 65 64 63 64 63 63 62 61 60 61 61 62 63 62 61 63 65 65 65 65 65 63 56 60 62 64
65 62 62 62 63 65 64 64 61 61 62 64 62 61 61 60 62 62 63 63 62 64 64 64 60 64 65 66 57 58 58 63
66 63 62 62 63 62 64 62 60 63 64 62 61 61 60 60 60 59 60 62 61 62 64 65 64 61 64 65 66 65 61 54
65 63 62 62 61 63 63 62 64 65 63 60 60 61 60 60 59 58 57 59 60 60 61 63 64 65 63 60 61 60 60 60
64 63 61 62 61 63 63 61 61 63 61 59 59 59 59 59 58 58 58 57 58 58 59 60 62 65 65 64 62 61 60 60
64 63 61 61 60 61 61 60 62 64 62 60 59 58 58 58 58 57 57 57 58 58 59 59 60 62 63 65 66 67 66 64
63 62 61 61 61 61 61 61 65 66 64 62 63 59 59 59 59 58 57 59 58 58 61 60 60 61 60 62 64 66 67 67

GFSFLT2_sfc_temp_096.txt.gz
Temp
78 79 77 70 71 71 71 71 71 72 72 72 73 72 72 73 73 73 71 70 70 71 70 69 69 69 68 68 69 71 81 80
76 76 77 82 79 69 70 70 70 70 71 70 69 71 71 71 71 72 72 72 72 71 69 69 68 68 68 67 68 70 83 84
74 75 79 82 78 75 70 70 70 70 70 68 68 81 79 74 74 70 71 71 72 71 69 68 67 67 67 67 68 82 82 82
75 76 79 80 79 77 76 78 75 77 78 76 79 81 81 81 75 69 70 69 70 70 68 66 69 76 76 69 79 82 84 85
73 74 77 79 76 76 74 72 73 73 74 77 79 79 78 77 80 78 77 71 74 67 65 71 74 76 74 77 80 81 84 84
73 73 73 77 80 73 72 71 70 70 71 73 74 77 76 76 78 77 76 75 73 70 66 71 74 76 77 79 79 82 83 84
74 72 72 78 78 77 74 72 70 73 70 71 72 72 71 73 76 76 74 73 69 68 66 70 73 76 78 77 78 79 80 83
77 70 71 74 76 74 71 72 74 72 71 70 70 71 72 72 74 73 70 70 67 65 67 70 73 77 77 77 77 78 78 79
79 72 72 70 73 72 75 71 74 72 69 68 69 72 73 70 70 70 67 65 67 65 68 70 74 77 77 77 78 78 79 79
81 78 70 70 72 69 69 70 69 71 71 69 69 71 72 69 67 69 66 64 65 63 67 69 74 76 75 77 78 78 77 78
81 79 71 70 71 69 68 70 67 71 72 71 71 69 68 67 65 65 63 62 63 63 68 70 72 73 76 77 77 77 77 78
82 79 73 68 68 67 67 68 67 70 72 71 71 69 67 64 64 63 61 60 60 61 67 69 72 74 76 74 75 76 77 73
81 78 71 67 65 64 63 64 65 67 73 69 70 65 63 63 63 62 61 60 60 62 68 69 68 73 70 67 68 70 71 72
80 79 69 69 72 73 70 68 68 70 69 68 68 65 61 62 62 62 61 60 60 62 68 68 68 70 66 67 57 61 66 70
80 79 68 69 75 74 70 71 69 68 67 64 61 61 61 61 61 62 61 61 61 66 69 68 66 69 71 70 61 61 66 70
80 76 67 68 72 73 72 70 67 69 67 71 63 63 61 62 60 61 61 62 65 66 69 71 70 67 71 75 75 74 66 60
78 70 66 67 69 74 72 73 75 70 69 67 64 62 63 60 61 62 63 64 65 69 69 70 71 70 67 67 67 68 71 69
74 65 65 66 69 72 72 72 72 69 67 66 60 60 59 60 59 59 61 63 63 64 63 63 64 68 69 70 70 66 66 66
70 64 64 66 67 69 69 72 70 70 67 65 61 59 59 58 58 58 58 59 60 60 60 60 60 61 64 68 72 71 71 70
68 65 66 66 66 67 67 72 65 72 69 67 63 62 60 60 59 58 59 59 59 59 59 59 60 62 68 69 70 72 74 72

GFSFLT2_sfc_temp_099.txt.gz
Temp
84 82 78 71 71 72 71 72 72 72 73 73 73 73 73 73 72 72 72 71 70 70 68 68 68 68 68 69 69 70 82 79
83 83 83 82 80 70 71 71 71 71 71 71 71 70 72 72 72 71 70 70 70 69 69 68 68 67 67 67 69 69 78 80
82 82 83 84 81 77 71 71 71 70 71 69 70 80 79 75 74 71 70 70 70 70 69 69 66 67 66 66 69 81 77 75
79 81 82 84 79 78 80 80 81 80 80 77 79 80 80 81 75 70 70 70 70 70 69 66 66 69 71 68 81 79 76 75
82 79 82 83 84 82 82 81 80 81 80 79 80 81 78 78 75 77 78 71 76 73 70 66 66 68 75 78 80 74 78 78
82 80 80 82 85 82 82 82 80 79 79 78 77 77 77 75 79 77 75 75 76 75 70 66 66 69 76 76 75 81 85 79
82 80 77 80 81 82 77 76 75 75 74 76 78 78 75 75 76 76 75 77 73 72 68 68 66 69 75 76 79 82 83 79
84 78 75 79 82 82 74 77 80 75 73 72 72 75 73 75 75 75 73 76 74 67 69 66 65 68 74 77 80 81 81 82
83 77 74 77 81 82 78 79 80 78 77 75 71 72 72 74 73 72 74 73 73 71 68 66 65 70 75 78 79 79 79 80
87 83 73 73 78 81 81 79 79 80 79 76 72 73 71 68 68 69 72 71 71 68 68 65 64 70 73 78 79 79 78 79
88 84 78 72 73 77 77 77 76 77 79 75 75 73 72 72 70 69 71 68 69 66 67 65 63 68 74 75 78 78 78 81
90 85 81 75 73 74 72 72 70 75 77 75 75 73 73 73 70 67 67 66 66 64 65 64 66 69 75 73 73 73 75 76
89 85 81 73 70 69 68 69 67 72 71 76 77 75 71 70 65 63 63 62 62 63 66 63 64 68 68 67 68 72 70 71
87 86 83 75 71 73 74 73 71 76 75 76 76 75 72 66 64 62 61 61 61 61 63 63 66 68 68 65 58 61 66 68
87 87 85 75 74 77 78 76 73 72 70 75 72 72 70 65 63 62 61 61 60 61 62 63 63 67 68 66 60 60 63 65
86 87 86 75 77 79 77 75 70 73 74 75 69 67 63 63 62 62 61 61 60 61 63 64 66 65 68 72 70 72 63 59
85 85 86 73 77 80 77 76 76 76 76 71 63 63 64 62 61 61 61 61 61 61 64 66 69 68 68 67 70 73 71 68
84 82 80 73 73 78 76 76 77 75 73 67 65 62 60 61 62 60 60 61 61 62 67 67 67 67 70 71 70 68 67 67
83 81 73 70 68 76 77 77 77 75 72 68 63 60 60 60 61 59 60 61 61 63 63 64 67 68 67 67 67 67 70 71
82 79 70 67 67 75 77 78 77 76 73 69 66 61 61 60 60 59 58 60 61 61 59 59 59 59 60 61 62 64 69 72

GFSFLT2_sfc_temp_102.txt.gz
Temp
77 76 75 72 71 71 71 72 72 72 72 72 74 73 73 73 73 72 71 71 71 70 70 69 69 69 67 67 66 69 71 74
77 77 76 75 74 70 70 72 71 71 72 72 71 71 72 71 71 72 71 71 70 70 69 69 69 68 68 66 66 68 70 72
78 78 77 77 76 74 70 71 71 70 71 70 69 74 73 72 72 70 70 70 70 69 69 68 67 67 67 67 66 71 68 71
78 77 77 78 79 73 74 75 74 73 74 72 72 73 72 74 71 69 69 69 69 68 68 67 67 66 65 67 68 68 69 69
77 76 77 78 77 76 76 76 75 75 74 74 73 74 71 70 69 70 68 68 69 68 67 66 66 65 65 68 69 68 69 71
77 77 76 76 78 76 76 76 75 73 74 74 72 71 70 69 68 68 69 69 69 69 67 66 65 66 66 68 71 69 69 69
77 76 75 77 77 76 75 74 74 73 73 73 72 70 70 69 69 69 68 68 67 67 67 65 65 65 66 68 71 69 72 71
77 76 75 76 76 75 73 73 72 72 72 72 72 71 70 69 68 68 68 67 67 69 67 65 64 65 65 66 72 69 71 69
76 75 73 74 76 76 74 73 74 73 72 71 70 70 71 69 68 67 68 67 68 67 65 65 64 65 64 66 72 73 71 70
78 78 73 72 74 76 74 73 74 73 72 70 70 70 69 68 68 67 67 67 67 66 64 63 63 63 63 64 70 70 70 71
78 75 72 71 73 75 74 73 73 74 73 72 71 70 70 68 67 66 67 66 66 66 64 63 62 62 63 64 69 67 68 74
80 76 72 71 71 73 74 73 72 72 72 72 71 70 69 69 67 66 66 66 65 65 64 64 63 62 64 64 69 66 67 66
81 77 74 70 69 69 69 68 68 69 71 73 71 70 69 68 66 65 65 65 64 65 64 63 61 62 60 61 63 65 63 64
81 79 77 73 71 71 69 69 69 69 70 71 71 70 69 67 65 64 64 64 64 64 63 61 61 61 59 60 55 57 61 63
81 81 79 75 72 71 70 70 69 67 69 70 70 70 69 67 65 63 62 62 61 61 62 62 60 60 61 61 54 52 56 60
80 80 80 77 72 70 69 69 67 67 69 70 69 68 66 66 64 63 62 62 61 61 62 62 62 59 61 66 63 63 56 52
76 78 80 76 71 71 71 71 70 70 69 69 65 65 64 64 63 62 61 61 61 61 61 61 61 61 62 62 62 62 62 57
75 77 79 74 72 72 72 71 70 69 69 66 63 62 62 62 61 61 62 61 61 61 61 62 61 61 63 62 63 60 60 58
72 77 77 72 71 72 73 72 72 70 69 66 62 60 59 60 61 59 60 60 60 61 62 61 61 61 61 62 63 62 62 62
67 63 77 71 69 71 74 74 73 71 69 68 64 61 60 60 60 60 60 60 61 60 61 61 61 61 61 61 60 60 61 61

GFSFLT2_sfc_temp_105.txt.gz
Temp
69 70 71 71 71 71 71 72 72 72 72 72 73 72 73 74 71 71 70 71 70 71 70 70 70 69 68 67 66 69 68 67
68 68 68 68 68 70 70 71 71 71 71 70 71 71 72 72 71 71 70 70 70 71 70 69 69 69 68 66 66 66 68 68
69 68 69 68 68 70 70 71 71 71 71 70 68 69 70 70 70 70 70 70 70 70 69 69 68 68 69 67 67 65 67 69
70 69 69 70 73 68 67 69 67 68 68 68 68 68 68 70 69 69 69 69 69 68 68 67 67 65 66 67 65 66 66 67
70 70 70 71 70 68 68 67 66 67 68 68 68 68 67 67 67 68 67 67 67 66 65 64 64 64 65 66 66 65 65 66
71 70 70 70 71 70 69 69 67 66 67 68 67 66 66 65 67 66 65 65 64 64 63 63 63 64 64 66 67 64 64 67
72 72 69 71 71 70 69 68 68 68 68 68 68 66 66 66 65 66 65 66 64 64 63 63 62 63 64 66 67 65 67 66
72 72 72 71 69 69 68 69 68 67 67 67 67 66 66 66 65 66 66 66 64 65 64 63 62 63 63 66 66 65 66 67
72 71 72 71 69 68 67 68 67 66 66 70 67 66 66 66 65 65 65 65 64 64 64 63 62 63 63 65 66 65 66 67
73 74 71 70 68 68 67 67 66 66 66 66 66 66 66 66 65 65 65 64 64 63 64 62 61 62 62 63 64 64 66 66
72 72 70 70 68 68 67 66 65 68 67 66 66 66 66 65 65 65 65 63 64 63 62 63 61 61 62 62 63 62 66 68
73 70 69 69 69 66 67 67 64 65 67 67 66 67 66 65 63 63 63 63 63 63 62 62 62 61 64 63 62 61 68 65
73 69 67 67 67 64 67 64 64 63 64 67 67 66 66 65 64 63 62 63 63 63 62 61 59 61 60 59 59 61 62 65
71 69 66 67 68 68 66 69 66 69 64 64 65 66 65 64 63 63 63 63 62 62 63 61 61 61 59 57 54 57 59 61
70 70 67 67 68 68 64 64 66 65 67 66 63 64 65 64 63 63 63 64 63 63 63 62 60 61 61 59 54 54 54 57
68 70 68 67 67 67 66 64 64 66 67 66 63 64 63 64 62 62 64 63 63 63 63 62 61 59 60 61 62 60 55 51
66 66 67 69 68 68 66 64 65 63 65 66 63 62 63 63 64 62 62 62 62 62 62 61 61 61 61 59 59 60 59 55
61 63 64 67 67 67 66 66 65 63 63 62 60 61 60 62 61 61 62 61 61 61 62 61 61 61 62 60 59 59 58 56
57 56 58 60 66 66 67 67 66 65 64 62 60 60 60 59 60 60 60 61 61 61 61 61 61 60 60 59 61 60 61 60
50 51 52 56 64 67 68 68 67 67 66 62 61 60 60 60 60 59 60 61 61 61 61 60 61 61 60 60 59 60 61 61

GFSFLT2_sfc_temp_108.txt.gz
Temp
68 69 71 70 70 70 70 71 71 72 72 72 73 72 71 71 71 70 71 71 71 71 71 71 71 70 68 67 67 68 66 66
67 67 68 68 69 69 70 70 70 70 71 71 71 71 71 71 70 70 70 71 71 71 69 69 69 68 67 67 66 67 66 65
66 67 67 66 67 69 70 70 70 70 70 70 69 70 70 70 70 68 69 69 70 70 69 69 68 67 66 66 66 66 67 65
66 66 66 66 70 67 67 68 67 67 68 68 68 68 68 70 69 68 69 69 69 68 68 68 67 64 65 66 66 66 66 66
67 67 67 67 68 66 66 66 65 65 66 67 67 67 67 67 68 68 67 68 66 66 65 64 63 63 65 66 66 66 66 65
68 68 68 68 67 66 66 66 65 65 66 67 66 66 65 66 66 67 66 64 63 63 62 62 62 63 65 65 66 64 65 65
69 69 68 69 68 67 67 66 66 66 66 67 66 65 65 65 65 65 65 64 63 62 61 61 61 62 62 64 66 65 65 65
71 70 71 70 69 68 67 67 67 66 67 67 66 66 65 65 65 65 65 65 64 63 62 62 61 61 61 63 65 65 65 65
70 70 70 69 70 68 67 68 67 66 67 66 66 66 66 65 64 64 64 65 64 62 61 62 60 62 61 62 64 64 64 64
71 73 70 70 68 69 68 68 67 66 66 68 67 66 66 65 64 64 64 63 64 63 63 63 62 62 61 61 62 64 64 64
70 70 69 70 69 69 67 67 67 66 65 65 68 65 66 65 64 64 64 63 63 63 63 64 62 61 61 61 61 62 63 64
72 70 70 70 67 66 65 65 65 66 65 65 66 66 65 64 64 64 63 62 63 64 64 63 62 62 62 61 60 61 61 62
71 69 68 68 66 65 64 65 64 64 65 66 65 66 65 65 64 63 62 62 63 63 62 61 60 61 60 59 59 59 59 60
70 69 67 68 70 69 67 67 65 65 64 65 66 65 65 65 64 63 62 61 61 63 62 60 61 61 60 59 55 56 57 59
66 66 66 69 70 67 63 62 62 62 62 63 64 65 65 65 64 63 62 62 62 62 62 61 59 61 61 58 53 52 55 57
61 65 66 66 65 66 65 65 63 66 67 65 64 64 64 64 62 62 62 63 63 63 63 62 61 59 59 62 60 59 55 52
57 57 61 63 64 65 64 66 66 62 63 63 64 63 63 64 62 62 62 63 63 63 62 62 62 61 60 59 57 59 58 57
53 52 55 57 60 65 66 64 62 62 62 62 64 64 63 63 63 62 63 62 62 62 63 62 62 62 61 60 59 59 57 58
50 49 49 52 53 61 65 64 64 63 62 62 61 61 61 62 62 61 61 62 62 62 62 62 62 61 61 59 61 61 63 60
45 46 48 50 50 55 65 66 64 64 63 63 62 61 61 61 61 60 60 60 61 61 61 61 61 60 60 60 59 60 61 60

GFSFLT2_sfc_temp_111.txt.gz
Temp
68 69 71 70 70 70 70 71 71 72 72 72 72 71 71 72 72 72 72 72 72 72 71 71 70 70 69 68 67 67 66 66
67 67 68 68 68 69 69 70 70 70 71 71 70 70 71 71 70 71 71 71 71 71 70 70 69 68 68 67 66 67 66 65
66 67 66 66 66 68 70 70 70 70 70 70 68 69 69 70 69 69 70 70 70 69 69 69 68 67 67 66 67 65 65 65
66 66 66 66 68 66 66 68 68 68 69 69 68 68 68 69 69 68 68 69 69 69 68 68 66 64 65 66 65 66 65 65
65 66 66 66 67 67 65 65 65 65 66 67 67 67 67 67 67 66 65 67 65 66 65 63 62 62 63 63 64 66 65 66
65 66 66 66 66 67 66 65 64 64 65 66 66 66 66 67 68 67 66 65 64 63 62 62 62 62 63 63 64 64 64 65
66 66 66 66 66 66 65 64 64 64 65 66 66 66 65 67 67 67 66 64 63 61 61 61 61 61 62 63 63 64 64 64
67 66 67 67 66 66 66 65 64 64 65 66 66 66 65 66 66 66 65 64 62 62 61 60 60 60 62 64 64 63 64 64
68 67 67 67 67 66 66 66 66 65 65 65 65 65 64 65 65 65 65 63 62 61 60 60 59 60 60 61 62 62 63 64
68 70 68 67 67 67 67 67 66 65 65 66 65 65 65 64 64 64 63 63 63 61 61 61 62 61 59 60 61 61 62 64
68 69 67 67 68 68 67 67 66 65 66 66 65 65 65 64 63 63 63 62 62 62 62 62 61 61 61 60 60 60 62 64
70 69 68 68 67 66 64 65 65 65 65 66 66 66 65 64 63 62 62 62 62 62 61 63 63 62 62 61 61 59 61 62
69 67 67 68 66 65 64 64 65 64 65 66 66 65 64 64 63 62 62 62 62 62 63 62 61 61 59 59 60 59 60 61
65 67 66 68 67 68 67 67 64 65 65 64 66 65 65 64 63 62 62 62 62 63 62 61 61 61 58 58 55 56 58 59
61 64 66 67 67 67 63 63 62 60 64 64 64 65 65 65 64 64 62 63 62 63 62 62 59 60 61 58 53 52 55 57
55 63 66 67 67 67 64 66 64 64 64 66 66 65 64 65 65 64 63 63 63 63 62 62 61 59 60 62 58 57 54 51
52 55 56 57 64 66 65 64 66 61 62 61 63 64 64 64 64 64 63 64 64 63 62 62 62 61 60 60 58 57 58 55
48 50 52 53 54 59 64 64 64 61 62 61 61 62 63 64 64 63 63 63 62 63 63 62 62 61 61 61 60 58 57 57
46 46 48 49 51 53 57 64 62 63 63 64 62 61 61 62 63 62 62 63 63 63 62 62 61 61 61 60 62 60 61 61
43 44 46 48 49 50 52 57 64 63 62 63 63 63 64 62 62 63 63 62 62 61 61 61 62 61 61 61 60 59 60 60

GFSFLT2_sfc_temp_114.txt.gz
Temp
70 71 71 71 70 70 70 71 71 72 72 72 72 71 71 72 72 73 73 72 72 72 71 71 70 70 69 68 67 68 67 67
69 71 69 69 70 69 69 70 70 71 71 71 70 70 71 71 71 72 72 72 71 71 70 70 70 69 68 67 66 67 66 67
69 69 69 67 67 69 70 70 70 70 70 70 68 69 69 69 69 70 71 71 70 70 69 69 68 68 67 67 67 66 66 66
67 68 68 67 68 69 69 71 71 70 69 69 68 68 68 68 68 68 69 69 69 69 69 67 66 64 64 66 65 65 65 65
67 68 68 68 69 68 68 69 68 68 67 67 66 67 67 66 65 65 65 67 65 65 65 63 62 63 63 63 65 65 65 65
65 66 66 67 68 68 68 67 66 66 67 67 67 67 67 67 65 64 64 63 63 63 62 62 61 62 63 63 63 64 64 65
64 65 65 66 66 68 67 67 65 65 65 67 67 67 67 67 67 65 66 65 64 62 61 61 61 61 62 63 63 63 64 65
65 64 65 66 65 67 66 65 63 64 65 67 66 66 66 68 67 66 66 65 62 62 61 60 60 60 61 62 63 63 63 64
65 65 65 65 65 64 65 65 64 64 65 66 65 65 65 67 66 65 65 64 61 61 60 60 60 60 60 61 62 62 63 64
67 68 65 65 65 65 65 65 64 64 64 66 65 65 65 65 66 65 65 63 61 60 61 60 60 61 60 60 61 62 62 63
67 67 65 66 66 66 65 65 65 64 64 65 65 64 64 64 65 65 64 63 63 62 61 60 59 61 61 60 60 60 62 64
69 68 67 67 67 67 67 66 66 65 65 65 64 65 64 63 63 62 63 63 63 62 62 62 60 61 62 61 62 61 62 63
69 66 66 67 67 66 66 65 65 65 65 65 65 64 64 63 62 62 63 63 63 62 62 62 61 62 60 59 60 60 60 62
62 66 66 67 69 69 67 68 68 67 66 65 65 64 64 64 63 62 63 63 62 62 62 61 61 61 58 58 55 56 59 61
54 63 65 67 68 67 63 64 63 63 65 64 64 64 64 64 64 63 62 63 62 62 62 62 59 60 61 59 54 53 55 58
50 56 63 66 68 67 66 65 64 66 66 66 65 64 65 65 64 63 63 63 63 63 63 62 62 59 60 61 60 58 54 51
48 54 54 54 57 67 66 65 64 62 63 65 65 65 65 65 65 64 63 63 64 63 62 62 62 62 60 59 60 57 57 54
48 51 51 52 53 55 62 65 64 61 62 63 64 64 64 64 65 65 65 64 63 63 63 62 62 62 62 61 60 58 56 55
46 47 48 50 51 52 53 55 65 63 62 63 63 63 62 63 63 63 64 64 64 64 63 62 62 61 61 61 61 61 62 61
44 45 46 48 49 50 53 54 55 63 63 63 62 63 63 65 64 63 64 63 63 63 63 62 62 61 61 61 61 61 62 60

GFSFLT2_sfc_temp_117.txt.gz
Temp
75 76 75 70 70 70 70 71 72 72 72 72 73 72 72 73 73 73 73 72 72 72 71 70 70 70 69 68 68 68 78 78
73 74 75 76 75 69 69 70 70 71 71 71 70 71 71 72 72 72 72 72 72 71 70 70 70 69 68 67 67 67 77 78
72 72 73 74 74 73 71 70 70 70 72 70 70 78 78 76 74 70 71 71 71 70 70 69 68 68 68 67 66 73 75 76
71 71 71 71 73 73 74 75 77 77 77 77 77 77 77 77 73 69 70 69 69 69 68 68 69 77 76 69 71 71 71 68
69 70 71 71 72 72 71 73 73 74 76 76 76 75 74 75 77 77 75 71 77 75 74 76 75 75 75 76 74 71 71 69
70 71 70 70 73 71 71 71 71 71 74 75 73 71 71 74 77 76 75 75 74 76 76 74 73 74 75 74 74 70 73 69
71 69 69 70 70 71 70 69 69 71 71 72 74 71 70 73 74 75 75 73 73 73 75 73 72 73 73 74 75 74 74 73
72 68 69 70 69 70 70 69 70 70 71 71 71 72 70 71 71 72 73 73 69 73 74 72 72 72 72 73 74 74 74 74
72 71 70 69 69 70 69 69 71 73 71 70 70 71 70 70 69 70 72 71 68 72 71 71 71 71 72 72 73 73 73 71
74 74 71 70 70 69 69 70 73 74 72 70 69 70 71 70 69 69 71 67 67 69 67 68 70 70 70 71 72 73 73 73
75 73 71 71 71 71 71 71 73 74 73 70 68 70 71 69 69 68 67 67 66 67 65 68 66 69 69 69 69 71 71 72
77 73 72 72 72 70 72 70 72 73 73 73 69 69 69 70 68 68 67 66 64 66 66 68 69 71 67 66 66 67 69 67
76 73 72 71 71 68 68 66 68 69 74 73 70 69 69 69 67 66 66 65 65 65 65 64 65 69 64 62 63 64 64 64
73 73 73 71 73 71 71 68 70 70 70 70 70 70 69 69 67 65 65 65 64 64 64 62 63 65 61 60 56 60 61 64
60 69 73 71 71 70 69 69 68 66 68 68 68 71 69 69 68 67 66 65 64 64 64 64 61 62 63 62 56 55 59 62
58 60 69 70 69 69 67 68 65 68 69 69 67 69 69 70 69 68 66 66 65 64 64 64 65 61 61 64 64 62 58 54
53 56 56 57 64 68 66 67 69 69 68 66 67 67 68 69 68 67 66 66 67 66 65 64 65 66 63 61 64 63 64 57
50 54 54 54 56 57 65 68 68 66 67 65 66 67 66 67 68 67 67 67 68 67 66 65 65 65 64 63 63 60 58 57
48 51 50 51 52 54 54 55 60 66 67 68 66 66 65 66 66 65 66 67 66 68 67 66 65 63 63 62 64 64 67 65
43 47 48 50 52 52 55 55 55 57 66 68 68 67 66 67 65 66 66 66 66 66 66 65 65 64 64 63 64 67 65 63

GFSFLT2_sfc_temp_120.txt.gz
Temp
85 82 78 71 71 71 71 72 72 72 73 73 73 72 72 73 73 74 74 73 73 72 72 71 71 70 70 69 69 70 83 82
83 84 83 82 80 70 70 71 71 71 72 71 71 71 72 72 72 73 73 73 72 72 71 70 70 69 69 68 67 68 82 80
82 82 80 84 84 79 71 71 71 70 72 71 71 84 82 79 77 71 72 71 71 71 70 70 69 69 68 67 67 81 81 79
82 79 76 78 79 81 81 82 83 82 82 81 83 84 84 84 77 70 70 70 70 70 69 68 70 83 79 70 80 79 79 78
79 76 75 75 80 78 80 80 85 83 81 82 82 81 81 83 83 81 80 72 81 77 76 82 83 84 84 82 79 80 79 78
83 80 75 73 84 81 83 77 79 79 80 79 79 79 78 81 83 82 80 82 83 83 83 83 82 82 83 82 81 80 81 78
83 81 77 74 79 83 80 77 76 77 77 79 80 76 78 82 83 81 79 82 82 82 82 81 81 81 82 81 82 80 81 78
84 81 78 75 79 80 77 76 76 76 76 76 79 77 77 82 81 82 80 82 83 81 81 82 81 82 80 81 81 81 80 80
84 81 78 75 74 80 80 75 74 75 75 75 75 76 75 80 78 81 80 79 78 79 80 82 81 81 80 81 82 81 81 79
85 85 79 76 75 79 77 77 73 79 78 74 73 74 75 74 75 74 78 74 75 78 78 79 80 80 80 81 81 82 81 79
83 85 81 77 78 78 78 77 78 83 84 75 73 73 72 73 73 74 74 72 71 75 75 78 77 78 80 80 80 81 80 80
82 84 82 79 80 79 80 80 81 84 84 82 74 72 72 72 72 72 71 71 70 69 71 77 77 77 77 77 77 77 79 77
78 80 83 81 79 78 79 78 80 81 84 82 79 72 71 72 71 70 70 70 69 68 69 71 72 75 69 69 69 71 69 70
74 80 83 82 81 82 82 80 80 82 83 82 80 72 71 72 71 70 69 69 69 68 66 67 69 70 68 67 64 67 66 70
69 76 84 82 79 80 81 81 80 78 79 80 77 76 72 71 71 70 69 69 68 68 67 67 66 66 70 73 64 67 73 74
64 69 70 76 73 76 74 77 74 76 78 79 75 74 77 72 72 70 69 68 69 68 69 67 69 63 66 73 75 75 69 65
56 59 56 57 71 73 71 77 79 79 78 76 73 71 75 75 73 71 70 70 70 69 66 66 67 68 68 67 70 72 72 69
51 54 52 54 57 64 69 67 74 76 73 72 70 70 69 70 76 72 71 71 70 69 68 68 67 68 68 70 71 68 67 66
47 50 50 52 54 56 59 59 63 71 73 72 69 68 66 68 71 70 70 70 71 69 68 69 69 69 70 70 72 72 69 66
43 45 46 50 51 54 56 57 57 59 62 65 73 70 69 70 69 69 70 70 70 72 70 71 71 70 69 68 69 68 68 67

GFSFLT2_sfc_temp_123.txt.gz
Temp
90 83 78 71 71 71 72 72 72 73 73 73 74 73 73 74 74 74 74 74 74 73 72 72 72 71 70 69 69 71 81 81
87 85 84 83 81 71 71 71 71 72 72 72 71 71 72 73 73 73 74 73 73 72 71 71 71 70 69 68 68 70 82 81
86 86 86 85 85 80 72 71 71 71 73 71 72 84 82 79 77 72 72 72 72 71 71 70 69 69 69 68 68 83 82 80
86 86 86 86 88 84 81 82 82 81 82 80 82 84 85 84 78 71 71 71 71 70 70 69 69 82 79 70 81 82 80 79
87 84 80 78 86 87 85 86 84 84 83 83 83 85 82 84 79 80 80 72 79 76 75 80 82 80 83 82 82 83 84 78
91 86 79 75 82 84 85 88 87 86 85 82 83 84 80 81 83 82 80 80 81 81 81 82 82 80 77 77 81 80 85 80
88 88 82 80 78 86 84 85 84 87 85 81 83 83 81 82 82 82 79 80 82 79 81 79 77 78 81 81 79 77 80 82
87 87 85 83 80 83 84 86 83 80 78 79 81 81 81 81 82 82 81 80 80 80 77 77 81 81 77 79 80 79 78 79
84 84 86 81 81 82 85 85 82 77 77 77 79 79 81 84 79 80 77 81 77 77 77 79 77 78 78 78 79 77 77 78
84 87 86 83 79 81 85 85 81 78 76 75 75 76 78 81 83 82 79 76 79 77 78 78 76 75 76 77 80 77 76 76
82 83 84 84 80 80 83 83 81 82 82 78 74 74 75 78 83 80 81 79 77 77 78 77 75 74 75 77 77 78 76 78
81 82 83 82 77 79 82 83 82 83 85 85 77 73 74 74 75 74 76 75 71 76 75 77 76 74 77 75 75 74 75 73
79 78 80 82 77 74 78 79 81 82 87 87 78 73 72 73 74 74 73 73 73 72 73 75 74 76 74 70 75 76 75 78
74 75 75 78 84 78 77 82 83 85 87 86 84 75 72 74 72 72 71 72 70 71 71 71 73 74 71 68 64 67 72 73
66 68 73 75 78 80 75 83 83 84 85 85 83 79 72 72 73 71 70 71 70 71 70 70 70 73 72 71 65 67 75 75
56 61 68 72 70 71 73 79 81 82 84 85 85 82 74 72 72 71 70 70 69 71 72 71 70 65 66 72 76 77 72 70
48 53 60 61 62 64 75 72 83 84 84 83 83 80 79 74 72 71 69 69 70 71 70 71 72 69 66 69 70 75 75 70
45 49 53 53 57 68 78 72 78 75 80 81 80 77 78 78 75 72 71 70 69 70 70 70 70 70 69 72 72 71 71 69
43 47 49 50 53 56 57 70 71 75 66 71 70 68 71 76 77 74 71 70 70 70 69 68 70 67 68 70 75 74 75 73
42 44 45 47 50 52 54 55 60 62 59 60 66 69 69 72 73 73 72 71 70 69 69 68 69 67 69 71 74 74 75 73

GFSFLT2_sfc_temp_126.txt.gz
Temp
79 78 75 71 71 71 71 72 72 73 73 73 73 73 73 74 74 74 74 74 74 73 72 72 72 71 71 70 69 70 69 73
83 80 78 77 75 71 71 71 71 72 72 72 72 72 72 73 72 73 74 73 73 72 72 71 71 70 70 69 68 70 71 74
81 78 79 78 78 76 71 72 71 71 72 71 69 76 74 73 74 72 72 71 72 72 71 70 70 69 69 69 69 72 73 72
82 80 77 79 83 77 75 76 75 74 75 74 75 76 76 78 75 71 71 71 71 70 70 69 68 72 69 67 70 73 72 71
80 79 77 78 79 77 77 77 76 76 76 76 75 78 76 76 72 73 72 70 71 70 68 71 72 73 74 72 73 76 71 69
79 81 76 76 78 77 78 78 77 77 77 76 75 76 75 74 74 74 73 72 73 72 71 72 73 74 75 74 76 73 70 69
74 77 76 76 75 77 77 77 78 78 77 77 77 76 73 75 74 75 75 74 73 72 73 73 73 72 73 75 75 73 74 72
72 74 75 76 74 74 75 77 78 77 79 77 77 76 74 74 74 74 74 74 73 74 73 72 72 73 73 75 76 75 75 71
72 70 71 75 75 75 76 77 79 77 77 76 76 76 75 75 74 73 74 74 73 73 72 72 72 73 72 74 75 75 74 73
74 78 73 70 75 76 77 78 79 77 76 75 76 76 75 75 75 74 74 73 73 71 71 70 70 70 71 71 73 74 73 73
72 72 71 70 70 74 74 76 76 76 75 75 74 75 75 75 74 74 74 72 72 72 70 69 68 70 71 70 71 71 72 74
65 66 71 70 70 72 72 72 73 76 75 75 75 74 74 74 75 74 73 72 71 71 69 70 69 68 72 71 70 71 71 70
60 60 64 70 71 68 69 69 70 73 77 76 75 74 73 73 73 71 71 71 70 69 69 68 67 68 65 66 67 69 69 67
54 56 58 60 66 71 68 69 70 74 76 77 76 74 73 73 73 71 70 71 69 69 70 67 67 68 63 63 58 62 64 67
51 52 53 56 59 65 67 64 69 69 74 76 75 74 72 72 72 72 71 71 69 69 69 68 65 67 67 63 57 56 61 65
48 49 50 53 56 58 60 58 58 69 73 77 75 73 72 71 72 71 72 70 70 69 70 68 69 65 65 68 65 64 59 57
44 46 47 50 52 56 54 55 58 65 73 76 76 72 72 71 71 70 70 69 69 69 68 68 68 66 65 62 64 64 64 60
40 41 45 48 51 52 54 56 58 61 71 74 76 73 70 70 71 69 69 69 69 68 69 68 68 67 66 65 64 63 63 60
37 38 42 46 47 51 54 57 59 63 69 74 74 72 70 68 69 68 68 69 69 68 68 67 67 67 67 65 68 66 66 65
35 36 40 44 46 50 51 53 56 57 56 61 65 66 68 70 68 69 68 68 67 67 67 67 67 66 64 65 66 67 66 65